Wetterdaten: Freitag, 22.01.2010
Datum Zeit Temp. Innen Temp. Aussen UV X Diff Temp. Feuchte Inne Feuchte Auss Sonnenschein Luftdruck Regen ab 0,1 Wind Sonnenschein Windben
22.01.2010 00:06 12,6 C 3,2 C 0,0 UV-I 0,0 C 49 % 86 % 0 % 1022,5 hPa 0,0 l/m 0,0 km/h (0 Bft) 0 min 2,4 km/h (1 Bft)
22.01.2010 00:08 12,6 C 3,2 C 0,0 UV-I 0,0 C 49 % 86 % 0 % 1022,5 hPa 0,0 l/m 0,0 km/h (0 Bft) 0 min 2,4 km/h (1 Bft)
22.01.2010 00:12 12,6 C 3,1 C 0,0 UV-I 0,0 C 49 % 86 % 0 % 1022,5 hPa 0,0 l/m 0,0 km/h (0 Bft) 0 min 0,0 km/h (0 Bft)
22.01.2010 00:18 12,6 C 3,1 C 0,0 UV-I 0,0 C 49 % 86 % 0 % 1022,3 hPa 0,0 l/m 0,0 km/h (0 Bft) 0 min 0,0 km/h (0 Bft)
22.01.2010 00:22 12,6 C 3,1 C 0,0 UV-I 0,0 C 49 % 86 % 0 % 1022,3 hPa 0,0 l/m 0,0 km/h (0 Bft) 0 min 4,8 km/h (1 Bft)
22.01.2010 00:24 12,6 C 3,1 C 0,0 UV-I 0,0 C 49 % 86 % 0 % 1022,3 hPa 0,0 l/m 0,2 km/h (0 Bft) 0 min 2,9 km/h (1 Bft)
22.01.2010 00:26 12,6 C 3,1 C 0,0 UV-I 0,0 C 49 % 86 % 0 % 1022,3 hPa 0,0 l/m 0,2 km/h (0 Bft) 0 min 3,8 km/h (1 Bft)
22.01.2010 00:28 12,6 C 3,1 C 0,0 UV-I 0,0 C 49 % 86 % 0 % 1022,3 hPa 0,0 l/m 0,2 km/h (0 Bft) 0 min 3,8 km/h (1 Bft)
22.01.2010 00:30 12,7 C 3,1 C 0,0 UV-I 0,0 C 49 % 86 % 0 % 1022,3 hPa 0,0 l/m 0,2 km/h (0 Bft) 0 min 0,0 km/h (0 Bft)
22.01.2010 00:32 12,8 C 3,1 C 0,0 UV-I 0,0 C 49 % 86 % 0 % 1022,3 hPa 0,0 l/m 0,2 km/h (0 Bft) 0 min 0,0 km/h (0 Bft)
22.01.2010 00:36 12,7 C 3,1 C 0,0 UV-I 0,0 C 49 % 86 % 0 % 1022,3 hPa 0,0 l/m 0,2 km/h (0 Bft) 0 min 0,0 km/h (0 Bft)
22.01.2010 00:40 12,6 C 3,1 C 0,0 UV-I 0,0 C 49 % 86 % 0 % 1022,3 hPa 0,0 l/m 0,7 km/h (0 Bft) 0 min 2,4 km/h (1 Bft)
22.01.2010 00:42 12,6 C 3,1 C 0,0 UV-I 0,0 C 49 % 86 % 0 % 1022,3 hPa 0,0 l/m 0,7 km/h (0 Bft) 0 min 2,4 km/h (1 Bft)
22.01.2010 00:44 12,6 C 3,1 C 0,0 UV-I 0,0 C 49 % 86 % 0 % 1022,3 hPa 0,0 l/m 0,7 km/h (0 Bft) 0 min 6,5 km/h (2 Bft)
22.01.2010 00:48 12,8 C 3,1 C 0,0 UV-I 0,0 C 49 % 86 % 0 % 1022,3 hPa 0,0 l/m 0,5 km/h (0 Bft) 0 min 0,0 km/h (0 Bft)
22.01.2010 00:50 12,8 C 3,1 C 0,0 UV-I 0,0 C 49 % 86 % 0 % 1022,3 hPa 0,0 l/m 0,2 km/h (0 Bft) 0 min 0,0 km/h (0 Bft)
22.01.2010 00:52 12,8 C 3,1 C 0,0 UV-I 0,0 C 49 % 86 % 0 % 1022,4 hPa 0,0 l/m 0,2 km/h (0 Bft) 0 min 0,0 km/h (0 Bft)
22.01.2010 00:54 12,8 C 3,1 C 0,0 UV-I 0,0 C 49 % 86 % 0 % 1022,4 hPa 0,0 l/m 0,0 km/h (0 Bft) 0 min 0,0 km/h (0 Bft)
22.01.2010 01:00 12,8 C 3,1 C 0,0 UV-I 0,0 C 49 % 86 % 0 % 1022,4 hPa 0,0 l/m 0,0 km/h (0 Bft) 0 min 0,0 km/h (0 Bft)
22.01.2010 01:02 12,8 C 3,1 C 0,0 UV-I 0,0 C 49 % 86 % 0 % 1022,4 hPa 0,0 l/m 0,0 km/h (0 Bft) 0 min 0,0 km/h (0 Bft)
22.01.2010 01:10 12,8 C 3,1 C 0,0 UV-I 0,0 C 49 % 86 % 0 % 1022,4 hPa 0,0 l/m 0,0 km/h (0 Bft) 0 min 0,0 km/h (0 Bft)
22.01.2010 01:16 12,8 C 3,1 C 0,0 UV-I 0,0 C 49 % 86 % 0 % 1022,2 hPa 0,0 l/m 0,2 km/h (0 Bft) 0 min 3,1 km/h (1 Bft)
22.01.2010 01:24 12,8 C 3,1 C 0,0 UV-I 0,0 C 49 % 86 % 0 % 1022,2 hPa 0,0 l/m 0,5 km/h (0 Bft) 0 min 3,1 km/h (1 Bft)
22.01.2010 01:28 12,8 C 3,1 C 0,0 UV-I 0,0 C 49 % 86 % 0 % 1022,2 hPa 0,0 l/m 0,7 km/h (0 Bft) 0 min 3,4 km/h (1 Bft)
22.01.2010 01:36 12,6 C 3,1 C 0,0 UV-I 0,0 C 49 % 86 % 0 % 1022,3 hPa 0,0 l/m 0,2 km/h (0 Bft) 0 min 3,4 km/h (1 Bft)
22.01.2010 01:40 12,8 C 3,0 C 0,0 UV-I 0,0 C 49 % 86 % 0 % 1022,3 hPa 0,0 l/m 0,0 km/h (0 Bft) 0 min 0,0 km/h (0 Bft)
22.01.2010 01:45 12,8 C 3,0 C 0,0 UV-I 0,0 C 49 % 86 % 0 % 1022,3 hPa 0,0 l/m 0,0 km/h (0 Bft) 0 min 0,0 km/h (0 Bft)
22.01.2010 01:50 12,8 C 3,1 C 0,0 UV-I 0,0 C 49 % 86 % 0 % 1022,3 hPa 0,0 l/m 0,0 km/h (0 Bft) 0 min 0,0 km/h (0 Bft)
22.01.2010 01:55 12,8 C 3,1 C 0,0 UV-I 0,0 C 49 % 86 % 0 % 1022,8 hPa 0,0 l/m 0,0 km/h (0 Bft) 0 min 0,0 km/h (0 Bft)
22.01.2010 02:00 12,8 C 3,1 C 0,0 UV-I 0,0 C 49 % 86 % 0 % 1022,8 hPa 0,0 l/m 0,0 km/h (0 Bft) 0 min 0,0 km/h (0 Bft)
22.01.2010 02:05 12,8 C 3,1 C 0,0 UV-I 0,0 C 49 % 86 % 0 % 1022,8 hPa 0,0 l/m 0,0 km/h (0 Bft) 0 min 0,0 km/h (0 Bft)
22.01.2010 02:10 12,8 C 3,1 C 0,0 UV-I 0,0 C 49 % 86 % 0 % 1022,8 hPa 0,0 l/m 0,0 km/h (0 Bft) 0 min 0,0 km/h (0 Bft)
22.01.2010 02:15 12,8 C 3,1 C 0,0 UV-I 0,0 C 49 % 86 % 0 % 1022,4 hPa 0,0 l/m 0,2 km/h (0 Bft) 0 min 3,4 km/h (1 Bft)
22.01.2010 02:20 12,8 C 3,1 C 0,0 UV-I 0,0 C 49 % 86 % 0 % 1022,4 hPa 0,0 l/m 0,2 km/h (0 Bft) 0 min 2,9 km/h (1 Bft)
22.01.2010 02:25 12,8 C 3,1 C 0,0 UV-I 0,0 C 49 % 86 % 0 % 1022,4 hPa 0,0 l/m 0,2 km/h (0 Bft) 0 min 0,0 km/h (0 Bft)
22.01.2010 02:30 12,8 C 3,0 C 0,0 UV-I 0,0 C 49 % 86 % 0 % 1022,4 hPa 0,0 l/m 0,2 km/h (0 Bft) 0 min 0,0 km/h (0 Bft)
22.01.2010 02:35 12,8 C 2,9 C 0,0 UV-I 0,0 C 49 % 86 % 0 % 1022,6 hPa 0,0 l/m 0,0 km/h (0 Bft) 0 min 0,0 km/h (0 Bft)
22.01.2010 02:40 12,8 C 2,9 C 0,0 UV-I 0,0 C 49 % 86 % 0 % 1022,6 hPa 0,0 l/m 0,2 km/h (0 Bft) 0 min 0,0 km/h (0 Bft)
22.01.2010 02:45 12,8 C 2,9 C 0,0 UV-I 0,0 C 49 % 86 % 0 % 1022,6 hPa 0,0 l/m 0,2 km/h (0 Bft) 0 min 0,0 km/h (0 Bft)
22.01.2010 02:50 12,8 C 2,9 C 0,0 UV-I 0,0 C 49 % 87 % 0 % 1022,6 hPa 0,0 l/m 0,0 km/h (0 Bft) 0 min 0,0 km/h (0 Bft)
22.01.2010 02:55 12,8 C 2,9 C 0,0 UV-I 0,0 C 49 % 87 % 0 % 1022,5 hPa 0,0 l/m 0,0 km/h (0 Bft) 0 min 0,0 km/h (0 Bft)
22.01.2010 03:00 12,8 C 2,9 C 0,0 UV-I 0,0 C 49 % 87 % 0 % 1022,5 hPa 0,0 l/m 0,0 km/h (0 Bft) 0 min 0,0 km/h (0 Bft)
22.01.2010 03:05 12,8 C 2,9 C 0,0 UV-I 0,0 C 49 % 87 % 0 % 1022,5 hPa 0,0 l/m 0,2 km/h (0 Bft) 0 min 2,6 km/h (1 Bft)
22.01.2010 03:10 12,8 C 2,9 C 0,0 UV-I 0,0 C 49 % 87 % 0 % 1022,5 hPa 0,0 l/m 0,2 km/h (0 Bft) 0 min 0,0 km/h (0 Bft)
22.01.2010 03:15 12,8 C 2,9 C 0,0 UV-I 0,0 C 49 % 87 % 0 % 1022,8 hPa 0,0 l/m 0,5 km/h (0 Bft) 0 min 3,4 km/h (1 Bft)
22.01.2010 03:19 12,8 C 2,9 C 0,0 UV-I 0,0 C 49 % 87 % 0 % 1022,8 hPa 0,0 l/m 0,2 km/h (0 Bft) 0 min 0,0 km/h (0 Bft)
22.01.2010 03:20 12,8 C 2,9 C 0,0 UV-I 0,0 C 49 % 87 % 0 % 1022,8 hPa 0,0 l/m 0,2 km/h (0 Bft) 0 min 3,4 km/h (1 Bft)
22.01.2010 03:22 12,8 C 3,0 C 0,0 UV-I 0,0 C 49 % 86 % 0 % 1022,8 hPa 0,0 l/m 0,2 km/h (0 Bft) 0 min 3,4 km/h (1 Bft)
22.01.2010 03:24 12,8 C 2,9 C 0,0 UV-I 0,0 C 49 % 87 % 0 % 1022,8 hPa 0,0 l/m 0,2 km/h (0 Bft) 0 min 0,0 km/h (0 Bft)
22.01.2010 03:26 12,6 C 2,9 C 0,0 UV-I 0,0 C 49 % 87 % 0 % 1022,8 hPa 0,0 l/m 0,2 km/h (0 Bft) 0 min 2,9 km/h (1 Bft)
22.01.2010 03:28 12,6 C 3,0 C 0,0 UV-I 0,0 C 49 % 86 % 0 % 1022,8 hPa 0,0 l/m 0,2 km/h (0 Bft) 0 min 2,9 km/h (1 Bft)
22.01.2010 03:30 12,6 C 3,0 C 0,0 UV-I 0,0 C 49 % 86 % 0 % 1022,8 hPa 0,0 l/m 0,2 km/h (0 Bft) 0 min 2,4 km/h (1 Bft)
22.01.2010 03:32 12,6 C 3,0 C 0,0 UV-I 0,0 C 49 % 86 % 0 % 1022,6 hPa 0,0 l/m 0,2 km/h (0 Bft) 0 min 2,4 km/h (1 Bft)
22.01.2010 03:34 12,6 C 3,1 C 0,0 UV-I 0,0 C 49 % 87 % 0 % 1022,6 hPa 0,0 l/m 0,2 km/h (0 Bft) 0 min 0,0 km/h (0 Bft)
22.01.2010 03:36 12,7 C 2,9 C 0,0 UV-I 0,0 C 49 % 87 % 0 % 1022,6 hPa 0,0 l/m 0,2 km/h (0 Bft) 0 min 0,0 km/h (0 Bft)
22.01.2010 03:38 12,7 C 2,9 C 0,0 UV-I 0,0 C 49 % 87 % 0 % 1022,6 hPa 0,0 l/m 0,2 km/h (0 Bft) 0 min 0,0 km/h (0 Bft)
22.01.2010 03:40 12,7 C 3,0 C 0,0 UV-I 0,0 C 49 % 87 % 0 % 1022,6 hPa 0,0 l/m 0,2 km/h (0 Bft) 0 min 0,0 km/h (0 Bft)
22.01.2010 03:42 12,6 C 2,9 C 0,0 UV-I 0,0 C 49 % 87 % 0 % 1022,6 hPa 0,0 l/m 0,0 km/h (0 Bft) 0 min 0,0 km/h (0 Bft)
22.01.2010 03:44 12,6 C 3,0 C 0,0 UV-I 0,0 C 49 % 87 % 0 % 1022,6 hPa 0,0 l/m 0,0 km/h (0 Bft) 0 min 0,0 km/h (0 Bft)
22.01.2010 03:46 12,6 C 2,9 C 0,0 UV-I 0,0 C 49 % 87 % 0 % 1022,6 hPa 0,0 l/m 0,0 km/h (0 Bft) 0 min 0,0 km/h (0 Bft)
22.01.2010 03:48 12,6 C 3,0 C 0,0 UV-I 0,0 C 49 % 87 % 0 % 1022,6 hPa 0,0 l/m 0,0 km/h (0 Bft) 0 min 0,0 km/h (0 Bft)
22.01.2010 03:50 12,8 C 3,0 C 0,0 UV-I 0,0 C 49 % 87 % 0 % 1022,6 hPa 0,0 l/m 0,0 km/h (0 Bft) 0 min 0,0 km/h (0 Bft)
22.01.2010 03:52 12,6 C 3,1 C 0,0 UV-I 0,0 C 49 % 87 % 0 % 1022,6 hPa 0,0 l/m 0,0 km/h (0 Bft) 0 min 0,0 km/h (0 Bft)
22.01.2010 03:54 12,6 C 3,1 C 0,0 UV-I 0,0 C 49 % 87 % 0 % 1022,6 hPa 0,0 l/m 0,2 km/h (0 Bft) 0 min 0,0 km/h (0 Bft)
22.01.2010 03:56 12,6 C 3,0 C 0,0 UV-I 0,0 C 49 % 86 % 0 % 1022,6 hPa 0,0 l/m 0,2 km/h (0 Bft) 0 min 0,0 km/h (0 Bft)
22.01.2010 03:58 12,6 C 3,1 C 0,0 UV-I 0,0 C 49 % 86 % 0 % 1022,6 hPa 0,0 l/m 0,2 km/h (0 Bft) 0 min 0,0 km/h (0 Bft)
22.01.2010 04:00 12,6 C 3,0 C 0,0 UV-I 0,0 C 49 % 87 % 0 % 1022,6 hPa 0,0 l/m 0,2 km/h (0 Bft) 0 min 0,0 km/h (0 Bft)
22.01.2010 04:02 12,6 C 3,1 C 0,0 UV-I 0,0 C 49 % 86 % 0 % 1022,6 hPa 0,0 l/m 0,2 km/h (0 Bft) 0 min 0,0 km/h (0 Bft)
22.01.2010 04:04 12,8 C 3,1 C 0,0 UV-I 0,0 C 49 % 86 % 0 % 1022,6 hPa 0,0 l/m 0,2 km/h (0 Bft) 0 min 0,0 km/h (0 Bft)
22.01.2010 04:06 12,6 C 3,1 C 0,0 UV-I 0,0 C 49 % 86 % 0 % 1022,6 hPa 0,0 l/m 0,0 km/h (0 Bft) 0 min 0,0 km/h (0 Bft)
22.01.2010 04:08 12,6 C 3,1 C 0,0 UV-I 0,0 C 49 % 86 % 0 % 1022,6 hPa 0,0 l/m 0,0 km/h (0 Bft) 0 min 0,0 km/h (0 Bft)
22.01.2010 04:10 12,8 C 3,1 C 0,0 UV-I 0,0 C 49 % 86 % 0 % 1022,6 hPa 0,0 l/m 0,0 km/h (0 Bft) 0 min 2,6 km/h (1 Bft)
22.01.2010 04:15 12,8 C 3,1 C 0,0 UV-I 0,0 C 49 % 86 % 0 % 1022,6 hPa 0,0 l/m 0,2 km/h (0 Bft) 0 min 0,0 km/h (0 Bft)
22.01.2010 04:18 12,6 C 3,1 C 0,0 UV-I 0,0 C 49 % 86 % 0 % 1022,6 hPa 0,0 l/m 0,2 km/h (0 Bft) 0 min 0,0 km/h (0 Bft)
22.01.2010 04:20 12,8 C 3,1 C 0,0 UV-I 0,0 C 49 % 86 % 0 % 1022,6 hPa 0,0 l/m 0,2 km/h (0 Bft) 0 min 2,6 km/h (1 Bft)
22.01.2010 04:22 12,6 C 3,1 C 0,0 UV-I 0,0 C 49 % 86 % 0 % 1022,6 hPa 0,0 l/m 0,2 km/h (0 Bft) 0 min 2,6 km/h (1 Bft)
22.01.2010 04:24 12,8 C 3,1 C 0,0 UV-I 0,0 C 49 % 86 % 0 % 1022,6 hPa 0,0 l/m 0,5 km/h (0 Bft) 0 min 2,6 km/h (1 Bft)
22.01.2010 04:26 12,6 C 3,1 C 0,0 UV-I 0,0 C 49 % 86 % 0 % 1022,6 hPa 0,0 l/m 0,5 km/h (0 Bft) 0 min 2,6 km/h (1 Bft)
22.01.2010 04:28 12,6 C 3,1 C 0,0 UV-I 0,0 C 49 % 86 % 0 % 1022,6 hPa 0,0 l/m 0,5 km/h (0 Bft) 0 min 0,0 km/h (0 Bft)
22.01.2010 04:30 12,8 C 3,1 C 0,0 UV-I 0,0 C 49 % 86 % 0 % 1022,6 hPa 0,0 l/m 0,7 km/h (0 Bft) 0 min 3,4 km/h (1 Bft)
22.01.2010 04:32 12,6 C 3,1 C 0,0 UV-I 0,0 C 49 % 86 % 0 % 1022,6 hPa 0,0 l/m 0,7 km/h (0 Bft) 0 min 3,4 km/h (1 Bft)
22.01.2010 04:34 12,6 C 3,1 C 0,0 UV-I 0,0 C 49 % 86 % 0 % 1022,6 hPa 0,0 l/m 0,7 km/h (0 Bft) 0 min 2,9 km/h (1 Bft)
22.01.2010 04:36 12,8 C 3,1 C 0,0 UV-I 0,0 C 49 % 86 % 0 % 1022,6 hPa 0,0 l/m 0,5 km/h (0 Bft) 0 min 4,8 km/h (1 Bft)
22.01.2010 04:38 12,6 C 3,1 C 0,0 UV-I 0,0 C 49 % 86 % 0 % 1022,6 hPa 0,0 l/m 0,7 km/h (0 Bft) 0 min 4,8 km/h (1 Bft)
22.01.2010 04:40 12,8 C 3,1 C 0,0 UV-I 0,0 C 49 % 86 % 0 % 1022,6 hPa 0,0 l/m 0,7 km/h (0 Bft) 0 min 0,0 km/h (0 Bft)
22.01.2010 04:42 12,6 C 3,1 C 0,0 UV-I 0,0 C 49 % 86 % 0 % 1022,6 hPa 0,0 l/m 1,0 km/h (0 Bft) 0 min 0,0 km/h (0 Bft)
22.01.2010 04:44 12,8 C 3,1 C 0,0 UV-I 0,0 C 49 % 86 % 0 % 1022,6 hPa 0,0 l/m 1,0 km/h (0 Bft) 0 min 0,0 km/h (0 Bft)
22.01.2010 04:46 12,6 C 3,1 C 0,0 UV-I 0,0 C 49 % 86 % 0 % 1022,6 hPa 0,0 l/m 1,0 km/h (0 Bft) 0 min 0,0 km/h (0 Bft)
22.01.2010 04:48 12,8 C 3,1 C 0,0 UV-I 0,0 C 49 % 86 % 0 % 1022,6 hPa 0,0 l/m 1,0 km/h (0 Bft) 0 min 3,6 km/h (1 Bft)
22.01.2010 04:50 12,8 C 3,1 C 0,0 UV-I 0,0 C 49 % 86 % 0 % 1022,6 hPa 0,0 l/m 1,0 km/h (0 Bft) 0 min 3,6 km/h (1 Bft)
22.01.2010 04:52 12,8 C 3,1 C 0,0 UV-I 0,0 C 49 % 87 % 0 % 1022,7 hPa 0,0 l/m 1,2 km/h (1 Bft) 0 min 2,4 km/h (1 Bft)
22.01.2010 04:54 12,6 C 3,1 C 0,0 UV-I 0,0 C 49 % 86 % 0 % 1022,7 hPa 0,0 l/m 1,4 km/h (1 Bft) 0 min 3,6 km/h (1 Bft)
22.01.2010 04:56 12,8 C 3,1 C 0,0 UV-I 0,0 C 49 % 86 % 0 % 1022,7 hPa 0,0 l/m 1,7 km/h (1 Bft) 0 min 3,6 km/h (1 Bft)
22.01.2010 04:58 12,8 C 3,1 C 0,0 UV-I 0,0 C 49 % 86 % 0 % 1022,7 hPa 0,0 l/m 1,7 km/h (1 Bft) 0 min 3,4 km/h (1 Bft)
22.01.2010 05:00 12,8 C 3,0 C 0,0 UV-I 0,0 C 49 % 86 % 0 % 1022,7 hPa 0,0 l/m 1,7 km/h (1 Bft) 0 min 4,1 km/h (1 Bft)
22.01.2010 05:02 12,8 C 3,0 C 0,0 UV-I 0,0 C 49 % 86 % 0 % 1022,7 hPa 0,0 l/m 1,9 km/h (1 Bft) 0 min 4,1 km/h (1 Bft)
22.01.2010 05:04 12,8 C 3,0 C 0,0 UV-I 0,0 C 49 % 86 % 0 % 1022,7 hPa 0,0 l/m 1,9 km/h (1 Bft) 0 min 2,9 km/h (1 Bft)
22.01.2010 05:06 12,8 C 3,1 C 0,0 UV-I 0,0 C 49 % 86 % 0 % 1022,7 hPa 0,0 l/m 1,7 km/h (1 Bft) 0 min 5,1 km/h (1 Bft)
22.01.2010 05:08 12,8 C 3,1 C 0,0 UV-I 0,0 C 49 % 86 % 0 % 1022,7 hPa 0,0 l/m 1,4 km/h (1 Bft) 0 min 5,1 km/h (1 Bft)
22.01.2010 05:10 12,8 C 3,1 C 0,0 UV-I 0,0 C 49 % 86 % 0 % 1022,7 hPa 0,0 l/m 1,2 km/h (1 Bft) 0 min 0,0 km/h (0 Bft)
22.01.2010 05:12 12,8 C 3,0 C 0,0 UV-I 0,0 C 49 % 86 % 0 % 1022,6 hPa 0,0 l/m 0,7 km/h (0 Bft) 0 min 0,0 km/h (0 Bft)
22.01.2010 05:14 12,8 C 3,0 C 0,0 UV-I 0,0 C 49 % 86 % 0 % 1022,6 hPa 0,0 l/m 0,5 km/h (0 Bft) 0 min 0,0 km/h (0 Bft)
22.01.2010 05:16 12,8 C 3,0 C 0,0 UV-I 0,0 C 49 % 86 % 0 % 1022,6 hPa 0,0 l/m 0,5 km/h (0 Bft) 0 min 2,4 km/h (1 Bft)
22.01.2010 05:18 12,8 C 3,0 C 0,0 UV-I 0,0 C 49 % 86 % 0 % 1022,6 hPa 0,0 l/m 0,2 km/h (0 Bft) 0 min 2,4 km/h (1 Bft)
22.01.2010 05:20 12,8 C 3,0 C 0,0 UV-I 0,0 C 49 % 86 % 0 % 1022,6 hPa 0,0 l/m 0,2 km/h (0 Bft) 0 min 0,0 km/h (0 Bft)
22.01.2010 05:22 12,8 C 3,0 C 0,0 UV-I 0,0 C 49 % 86 % 0 % 1022,6 hPa 0,0 l/m 0,2 km/h (0 Bft) 0 min 0,0 km/h (0 Bft)
22.01.2010 05:24 12,8 C 3,0 C 0,0 UV-I 0,0 C 49 % 86 % 0 % 1022,6 hPa 0,0 l/m 0,2 km/h (0 Bft) 0 min 0,0 km/h (0 Bft)
22.01.2010 05:26 12,8 C 3,0 C 0,0 UV-I 0,0 C 49 % 86 % 0 % 1022,6 hPa 0,0 l/m 0,5 km/h (0 Bft) 0 min 4,3 km/h (1 Bft)
22.01.2010 05:28 12,8 C 3,0 C 0,0 UV-I 0,0 C 49 % 86 % 0 % 1022,6 hPa 0,0 l/m 0,5 km/h (0 Bft) 0 min 4,3 km/h (1 Bft)
22.01.2010 05:30 12,8 C 3,1 C 0,0 UV-I 0,0 C 49 % 86 % 0 % 1022,6 hPa 0,0 l/m 1,0 km/h (0 Bft) 0 min 3,4 km/h (1 Bft)
22.01.2010 05:32 12,8 C 3,1 C 0,0 UV-I 0,0 C 49 % 86 % 0 % 1022,6 hPa 0,0 l/m 1,2 km/h (1 Bft) 0 min 3,4 km/h (1 Bft)
22.01.2010 05:34 12,8 C 3,0 C 0,0 UV-I 0,0 C 49 % 86 % 0 % 1022,6 hPa 0,0 l/m 1,2 km/h (1 Bft) 0 min 2,9 km/h (1 Bft)
22.01.2010 05:36 12,8 C 3,0 C 0,0 UV-I 0,0 C 49 % 86 % 0 % 1022,6 hPa 0,0 l/m 1,2 km/h (1 Bft) 0 min 0,0 km/h (0 Bft)
22.01.2010 05:38 12,8 C 3,0 C 0,0 UV-I 0,0 C 49 % 86 % 0 % 1022,6 hPa 0,0 l/m 1,0 km/h (0 Bft) 0 min 2,4 km/h (1 Bft)
22.01.2010 05:40 12,8 C 3,0 C 0,0 UV-I 0,0 C 49 % 86 % 0 % 1022,6 hPa 0,0 l/m 0,5 km/h (0 Bft) 0 min 2,4 km/h (1 Bft)
22.01.2010 05:42 12,8 C 3,0 C 0,0 UV-I 0,0 C 49 % 86 % 0 % 1022,6 hPa 0,0 l/m 0,2 km/h (0 Bft) 0 min 0,0 km/h (0 Bft)
22.01.2010 05:44 12,8 C 3,0 C 0,0 UV-I 0,0 C 49 % 86 % 0 % 1022,6 hPa 0,0 l/m 0,2 km/h (0 Bft) 0 min 0,0 km/h (0 Bft)
22.01.2010 05:46 12,8 C 3,0 C 0,0 UV-I 0,0 C 49 % 86 % 0 % 1022,6 hPa 0,0 l/m 0,2 km/h (0 Bft) 0 min 0,0 km/h (0 Bft)
22.01.2010 05:48 12,8 C 3,0 C 0,0 UV-I 0,0 C 49 % 86 % 0 % 1022,6 hPa 0,0 l/m 0,2 km/h (0 Bft) 0 min 0,0 km/h (0 Bft)
22.01.2010 05:50 12,8 C 3,0 C 0,0 UV-I 0,0 C 49 % 87 % 0 % 1022,6 hPa 0,0 l/m 0,0 km/h (0 Bft) 0 min 0,0 km/h (0 Bft)
22.01.2010 05:52 12,6 C 3,0 C 0,0 UV-I 0,0 C 49 % 87 % 0 % 1022,9 hPa 0,0 l/m 0,0 km/h (0 Bft) 0 min 0,0 km/h (0 Bft)
22.01.2010 05:54 12,8 C 3,0 C 0,0 UV-I 0,0 C 49 % 87 % 0 % 1022,9 hPa 0,0 l/m 0,2 km/h (0 Bft) 0 min 0,0 km/h (0 Bft)
22.01.2010 05:56 12,8 C 3,1 C 0,0 UV-I 0,0 C 49 % 87 % 0 % 1022,9 hPa 0,0 l/m 0,2 km/h (0 Bft) 0 min 0,0 km/h (0 Bft)
22.01.2010 05:58 12,8 C 3,1 C 0,0 UV-I 0,0 C 49 % 87 % 0 % 1022,9 hPa 0,0 l/m 0,2 km/h (0 Bft) 0 min 0,0 km/h (0 Bft)
22.01.2010 06:00 12,8 C 3,1 C 0,0 UV-I 0,0 C 49 % 86 % 0 % 1022,9 hPa 0,0 l/m 0,2 km/h (0 Bft) 0 min 0,0 km/h (0 Bft)
22.01.2010 06:02 12,8 C 3,0 C 0,0 UV-I 0,0 C 49 % 86 % 0 % 1022,9 hPa 0,0 l/m 0,2 km/h (0 Bft) 0 min 0,0 km/h (0 Bft)
22.01.2010 06:04 12,8 C 3,0 C 0,0 UV-I 0,0 C 49 % 86 % 0 % 1022,9 hPa 0,0 l/m 0,2 km/h (0 Bft) 0 min 0,0 km/h (0 Bft)
22.01.2010 06:06 12,8 C 3,0 C 0,0 UV-I 0,0 C 49 % 86 % 0 % 1022,9 hPa 0,0 l/m 0,2 km/h (0 Bft) 0 min 0,0 km/h (0 Bft)
22.01.2010 06:08 12,8 C 3,0 C 0,0 UV-I 0,0 C 49 % 86 % 0 % 1022,9 hPa 0,0 l/m 0,2 km/h (0 Bft) 0 min 4,3 km/h (1 Bft)
22.01.2010 06:10 12,8 C 3,0 C 0,0 UV-I 0,0 C 49 % 87 % 0 % 1022,9 hPa 0,0 l/m 0,2 km/h (0 Bft) 0 min 4,3 km/h (1 Bft)
22.01.2010 06:12 12,8 C 3,1 C 0,0 UV-I 0,0 C 49 % 86 % 0 % 1023,0 hPa 0,0 l/m 0,2 km/h (0 Bft) 0 min 0,0 km/h (0 Bft)
22.01.2010 06:14 12,8 C 3,0 C 0,0 UV-I 0,0 C 49 % 86 % 0 % 1023,0 hPa 0,0 l/m 0,2 km/h (0 Bft) 0 min 0,0 km/h (0 Bft)
22.01.2010 06:16 12,8 C 3,0 C 0,0 UV-I 0,0 C 49 % 86 % 0 % 1023,0 hPa 0,0 l/m 0,2 km/h (0 Bft) 0 min 2,4 km/h (1 Bft)
22.01.2010 06:18 12,8 C 3,0 C 0,0 UV-I 0,0 C 49 % 87 % 0 % 1023,0 hPa 0,0 l/m 0,2 km/h (0 Bft) 0 min 2,4 km/h (1 Bft)
22.01.2010 06:20 12,8 C 3,1 C 0,0 UV-I 0,0 C 49 % 87 % 0 % 1023,0 hPa 0,0 l/m 0,2 km/h (0 Bft) 0 min 0,0 km/h (0 Bft)
22.01.2010 06:22 12,8 C 3,1 C 0,0 UV-I 0,0 C 49 % 87 % 0 % 1023,0 hPa 0,0 l/m 0,0 km/h (0 Bft) 0 min 0,0 km/h (0 Bft)
22.01.2010 06:24 12,8 C 3,1 C 0,0 UV-I 0,0 C 49 % 86 % 0 % 1023,0 hPa 0,0 l/m 0,0 km/h (0 Bft) 0 min 0,0 km/h (0 Bft)
22.01.2010 06:26 12,8 C 3,1 C 0,0 UV-I 0,0 C 49 % 87 % 0 % 1023,0 hPa 0,0 l/m 0,2 km/h (0 Bft) 0 min 0,0 km/h (0 Bft)
22.01.2010 06:28 12,8 C 3,0 C 0,0 UV-I 0,0 C 49 % 87 % 0 % 1023,0 hPa 0,0 l/m 0,2 km/h (0 Bft) 0 min 2,6 km/h (1 Bft)
22.01.2010 06:30 12,8 C 3,0 C 0,0 UV-I 0,0 C 49 % 87 % 0 % 1023,0 hPa 0,0 l/m 0,2 km/h (0 Bft) 0 min 2,6 km/h (1 Bft)
22.01.2010 06:32 12,8 C 3,0 C 0,0 UV-I 0,0 C 49 % 86 % 0 % 1023,1 hPa 0,0 l/m 0,2 km/h (0 Bft) 0 min 0,0 km/h (0 Bft)
22.01.2010 06:34 12,8 C 3,0 C 0,0 UV-I 0,0 C 49 % 87 % 0 % 1023,1 hPa 0,0 l/m 0,2 km/h (0 Bft) 0 min 0,0 km/h (0 Bft)
22.01.2010 06:36 12,8 C 3,0 C 0,0 UV-I 0,0 C 49 % 86 % 0 % 1023,1 hPa 0,0 l/m 0,0 km/h (0 Bft) 0 min 0,0 km/h (0 Bft)
22.01.2010 06:38 12,8 C 3,0 C 0,0 UV-I 0,0 C 49 % 87 % 0 % 1023,1 hPa 0,0 l/m 0,0 km/h (0 Bft) 0 min 0,0 km/h (0 Bft)
22.01.2010 06:40 12,8 C 3,1 C 0,0 UV-I 0,0 C 48 % 87 % 0 % 1023,1 hPa 0,0 l/m 0,0 km/h (0 Bft) 0 min 0,0 km/h (0 Bft)
22.01.2010 06:42 12,8 C 3,0 C 0,0 UV-I 0,0 C 49 % 87 % 0 % 1023,1 hPa 0,0 l/m 0,0 km/h (0 Bft) 0 min 0,0 km/h (0 Bft)
22.01.2010 06:44 12,8 C 3,0 C 0,0 UV-I 0,0 C 49 % 87 % 0 % 1023,1 hPa 0,0 l/m 0,0 km/h (0 Bft) 0 min 0,0 km/h (0 Bft)
22.01.2010 06:46 12,8 C 3,0 C 0,0 UV-I 0,0 C 48 % 87 % 0 % 1023,1 hPa 0,0 l/m 0,0 km/h (0 Bft) 0 min 0,0 km/h (0 Bft)
22.01.2010 06:48 12,8 C 3,1 C 0,0 UV-I 0,0 C 49 % 87 % 0 % 1023,1 hPa 0,0 l/m 0,2 km/h (0 Bft) 0 min 3,1 km/h (1 Bft)
22.01.2010 06:50 12,8 C 3,1 C 0,0 UV-I 0,0 C 49 % 87 % 0 % 1023,1 hPa 0,0 l/m 0,2 km/h (0 Bft) 0 min 3,1 km/h (1 Bft)
22.01.2010 06:52 12,8 C 3,1 C 0,0 UV-I 0,0 C 49 % 87 % 0 % 1022,9 hPa 0,0 l/m 0,2 km/h (0 Bft) 0 min 0,0 km/h (0 Bft)
22.01.2010 06:54 12,8 C 3,1 C 0,0 UV-I 0,0 C 49 % 86 % 0 % 1022,9 hPa 0,0 l/m 0,2 km/h (0 Bft) 0 min 0,0 km/h (0 Bft)
22.01.2010 06:56 12,8 C 3,1 C 0,0 UV-I 0,0 C 49 % 86 % 0 % 1022,9 hPa 0,0 l/m 0,2 km/h (0 Bft) 0 min 0,0 km/h (0 Bft)
22.01.2010 06:58 12,8 C 3,1 C 0,0 UV-I 0,0 C 49 % 86 % 0 % 1022,9 hPa 0,0 l/m 0,2 km/h (0 Bft) 0 min 0,0 km/h (0 Bft)
22.01.2010 07:00 12,8 C 3,1 C 0,0 UV-I 0,0 C 49 % 86 % 0 % 1022,9 hPa 0,0 l/m 0,2 km/h (0 Bft) 0 min 0,0 km/h (0 Bft)
22.01.2010 07:02 12,8 C 3,1 C 0,0 UV-I 0,0 C 49 % 86 % 0 % 1022,9 hPa 0,0 l/m 0,2 km/h (0 Bft) 0 min 0,0 km/h (0 Bft)
22.01.2010 07:04 12,8 C 3,1 C 0,0 UV-I 0,0 C 49 % 86 % 0 % 1022,9 hPa 0,0 l/m 0,5 km/h (0 Bft) 0 min 0,0 km/h (0 Bft)
22.01.2010 07:06 12,8 C 3,1 C 0,0 UV-I 0,0 C 48 % 86 % 0 % 1022,9 hPa 0,0 l/m 0,5 km/h (0 Bft) 0 min 0,0 km/h (0 Bft)
22.01.2010 07:08 12,8 C 3,1 C 0,0 UV-I 0,0 C 49 % 86 % 0 % 1022,9 hPa 0,0 l/m 0,5 km/h (0 Bft) 0 min 0,0 km/h (0 Bft)
22.01.2010 07:10 12,8 C 3,1 C 0,0 UV-I 0,0 C 49 % 86 % 0 % 1022,9 hPa 0,0 l/m 0,5 km/h (0 Bft) 0 min 0,0 km/h (0 Bft)
22.01.2010 07:14 12,8 C 3,1 C 0,0 UV-I 0,0 C 49 % 86 % 0 % 1022,9 hPa 0,0 l/m 0,5 km/h (0 Bft) 0 min 3,6 km/h (1 Bft)
22.01.2010 07:16 12,8 C 3,1 C 0,0 UV-I 0,0 C 48 % 86 % 0 % 1022,9 hPa 0,0 l/m 0,2 km/h (0 Bft) 0 min 3,1 km/h (1 Bft)
22.01.2010 07:18 12,8 C 3,1 C 0,0 UV-I 0,0 C 48 % 86 % 0 % 1022,9 hPa 0,0 l/m 0,2 km/h (0 Bft) 0 min 3,1 km/h (1 Bft)
22.01.2010 07:20 12,8 C 3,1 C 0,0 UV-I 0,0 C 48 % 86 % 0 % 1022,9 hPa 0,0 l/m 0,2 km/h (0 Bft) 0 min 0,0 km/h (0 Bft)
22.01.2010 07:22 12,8 C 3,1 C 0,0 UV-I 0,0 C 48 % 86 % 0 % 1022,9 hPa 0,0 l/m 0,2 km/h (0 Bft) 0 min 0,0 km/h (0 Bft)
22.01.2010 07:24 12,8 C 3,1 C 0,0 UV-I 0,0 C 48 % 86 % 0 % 1022,9 hPa 0,0 l/m 0,5 km/h (0 Bft) 0 min 0,0 km/h (0 Bft)
22.01.2010 07:26 12,8 C 3,1 C 0,0 UV-I 0,0 C 48 % 86 % 0 % 1022,9 hPa 0,0 l/m 0,5 km/h (0 Bft) 0 min 0,0 km/h (0 Bft)
22.01.2010 07:28 12,8 C 3,1 C 0,0 UV-I 0,0 C 48 % 86 % 0 % 1022,9 hPa 0,0 l/m 0,5 km/h (0 Bft) 0 min 3,1 km/h (1 Bft)
22.01.2010 07:30 12,8 C 3,1 C 0,0 UV-I 0,0 C 48 % 86 % 0 % 1022,9 hPa 0,0 l/m 0,5 km/h (0 Bft) 0 min 3,1 km/h (1 Bft)
22.01.2010 07:32 12,8 C 3,1 C 0,0 UV-I 0,0 C 48 % 86 % 0 % 1022,9 hPa 0,0 l/m 0,7 km/h (0 Bft) 0 min 3,6 km/h (1 Bft)
22.01.2010 07:34 12,8 C 3,1 C 0,0 UV-I 0,0 C 48 % 86 % 0 % 1022,9 hPa 0,0 l/m 0,5 km/h (0 Bft) 0 min 3,6 km/h (1 Bft)
22.01.2010 07:36 12,8 C 3,1 C 0,0 UV-I 0,0 C 48 % 86 % 0 % 1022,9 hPa 0,0 l/m 0,5 km/h (0 Bft) 0 min 0,0 km/h (0 Bft)
22.01.2010 07:38 12,8 C 3,1 C 0,0 UV-I 0,0 C 48 % 86 % 0 % 1022,9 hPa 0,0 l/m 0,5 km/h (0 Bft) 0 min 0,0 km/h (0 Bft)
22.01.2010 07:40 12,8 C 3,1 C 0,0 UV-I 0,0 C 48 % 86 % 0 % 1022,9 hPa 0,0 l/m 0,5 km/h (0 Bft) 0 min 0,0 km/h (0 Bft)
22.01.2010 07:42 12,8 C 3,1 C 0,0 UV-I 0,0 C 48 % 86 % 0 % 1022,9 hPa 0,0 l/m 0,2 km/h (0 Bft) 0 min 0,0 km/h (0 Bft)
22.01.2010 07:44 12,8 C 3,1 C 0,0 UV-I 0,0 C 48 % 86 % 0 % 1022,9 hPa 0,0 l/m 0,2 km/h (0 Bft) 0 min 0,0 km/h (0 Bft)
22.01.2010 07:46 12,8 C 3,1 C 0,0 UV-I 0,0 C 48 % 86 % 0 % 1022,9 hPa 0,0 l/m 0,2 km/h (0 Bft) 0 min 0,0 km/h (0 Bft)
22.01.2010 07:50 12,8 C 3,1 C 0,0 UV-I 0,0 C 48 % 86 % 0 % 1022,9 hPa 0,0 l/m 0,2 km/h (0 Bft) 0 min 4,3 km/h (1 Bft)
22.01.2010 07:52 12,8 C 3,1 C 0,0 UV-I 0,0 C 48 % 86 % 0 % 1023,1 hPa 0,0 l/m 0,2 km/h (0 Bft) 0 min 4,3 km/h (1 Bft)
22.01.2010 07:54 12,6 C 3,1 C 0,0 UV-I 0,0 C 48 % 86 % 0 % 1023,1 hPa 0,0 l/m 0,2 km/h (0 Bft) 0 min 0,0 km/h (0 Bft)
22.01.2010 07:56 12,6 C 3,1 C 0,0 UV-I 0,0 C 48 % 86 % 0 % 1023,1 hPa 0,0 l/m 0,5 km/h (0 Bft) 0 min 0,0 km/h (0 Bft)
22.01.2010 07:58 12,6 C 3,1 C 0,0 UV-I 0,0 C 48 % 86 % 0 % 1023,1 hPa 0,0 l/m 0,2 km/h (0 Bft) 0 min 0,0 km/h (0 Bft)
22.01.2010 08:00 12,6 C 3,1 C 0,0 UV-I 0,0 C 48 % 86 % 0 % 1023,1 hPa 0,0 l/m 0,2 km/h (0 Bft) 0 min 0,0 km/h (0 Bft)
22.01.2010 08:02 12,6 C 3,0 C 0,0 UV-I 0,0 C 48 % 86 % 0 % 1023,1 hPa 0,0 l/m 0,0 km/h (0 Bft) 0 min 0,0 km/h (0 Bft)
22.01.2010 08:04 12,6 C 3,0 C 0,0 UV-I 0,0 C 48 % 86 % 0 % 1023,1 hPa 0,0 l/m 0,0 km/h (0 Bft) 0 min 0,0 km/h (0 Bft)
22.01.2010 08:06 12,6 C 3,0 C 0,0 UV-I 0,0 C 48 % 86 % 0 % 1023,1 hPa 0,0 l/m 0,0 km/h (0 Bft) 0 min 0,0 km/h (0 Bft)
22.01.2010 08:08 12,6 C 2,9 C 0,0 UV-I 0,0 C 48 % 86 % 0 % 1023,1 hPa 0,0 l/m 0,0 km/h (0 Bft) 0 min 0,0 km/h (0 Bft)
22.01.2010 08:10 12,6 C 2,9 C 0,0 UV-I 0,0 C 48 % 86 % 0 % 1023,1 hPa 0,0 l/m 0,0 km/h (0 Bft) 0 min 0,0 km/h (0 Bft)
22.01.2010 08:12 12,6 C 3,0 C 0,0 UV-I 0,0 C 48 % 86 % 0 % 1023,1 hPa 0,0 l/m 0,2 km/h (0 Bft) 0 min 4,1 km/h (1 Bft)
22.01.2010 08:14 12,6 C 2,9 C 0,0 UV-I 0,0 C 48 % 86 % 0 % 1023,1 hPa 0,0 l/m 0,2 km/h (0 Bft) 0 min 4,1 km/h (1 Bft)
22.01.2010 08:16 12,7 C 2,9 C 0,0 UV-I 0,0 C 48 % 86 % 0 % 1023,1 hPa 0,0 l/m 0,2 km/h (0 Bft) 0 min 3,4 km/h (1 Bft)
22.01.2010 08:18 12,8 C 2,9 C 0,0 UV-I 0,0 C 48 % 86 % 0 % 1023,1 hPa 0,0 l/m 0,2 km/h (0 Bft) 0 min 3,4 km/h (1 Bft)
22.01.2010 08:20 12,8 C 2,9 C 0,0 UV-I 0,0 C 48 % 86 % 0 % 1023,1 hPa 0,0 l/m 0,2 km/h (0 Bft) 0 min 2,6 km/h (1 Bft)
22.01.2010 08:22 12,6 C 2,9 C 0,0 UV-I 0,0 C 48 % 86 % 0 % 1023,1 hPa 0,0 l/m 0,5 km/h (0 Bft) 0 min 2,6 km/h (1 Bft)
22.01.2010 08:24 12,6 C 2,9 C 0,0 UV-I 0,0 C 48 % 86 % 0 % 1023,1 hPa 0,0 l/m 0,5 km/h (0 Bft) 0 min 0,0 km/h (0 Bft)
22.01.2010 08:26 12,6 C 2,9 C 0,0 UV-I 0,0 C 48 % 86 % 0 % 1023,1 hPa 0,0 l/m 0,5 km/h (0 Bft) 0 min 0,0 km/h (0 Bft)
22.01.2010 08:28 12,6 C 2,9 C 0,0 UV-I 0,0 C 48 % 86 % 0 % 1023,1 hPa 0,0 l/m 0,5 km/h (0 Bft) 0 min 0,0 km/h (0 Bft)
22.01.2010 08:30 12,6 C 2,9 C 0,0 UV-I 0,0 C 48 % 86 % 0 % 1023,1 hPa 0,0 l/m 0,5 km/h (0 Bft) 0 min 0,0 km/h (0 Bft)
22.01.2010 08:32 12,6 C 2,9 C 0,0 UV-I 0,0 C 48 % 86 % 0 % 1023,2 hPa 0,0 l/m 0,2 km/h (0 Bft) 0 min 0,0 km/h (0 Bft)
22.01.2010 08:34 12,8 C 2,9 C 0,0 UV-I 0,0 C 48 % 86 % 0 % 1023,2 hPa 0,0 l/m 0,2 km/h (0 Bft) 0 min 2,4 km/h (1 Bft)
22.01.2010 08:38 12,6 C 2,9 C 0,0 UV-I 0,0 C 48 % 86 % 0 % 1023,2 hPa 0,0 l/m 0,2 km/h (0 Bft) 0 min 2,4 km/h (1 Bft)
22.01.2010 08:40 12,6 C 2,9 C 0,0 UV-I 0,0 C 48 % 86 % 0 % 1023,2 hPa 0,0 l/m 0,5 km/h (0 Bft) 0 min 0,0 km/h (0 Bft)
22.01.2010 08:42 12,6 C 2,9 C 0,0 UV-I 0,0 C 48 % 86 % 0 % 1023,2 hPa 0,0 l/m 0,2 km/h (0 Bft) 0 min 0,0 km/h (0 Bft)
22.01.2010 08:44 12,8 C 2,9 C 0,0 UV-I 0,0 C 48 % 86 % 0 % 1023,2 hPa 0,0 l/m 0,2 km/h (0 Bft) 0 min 2,9 km/h (1 Bft)
22.01.2010 08:46 12,6 C 2,8 C 0,0 UV-I 0,0 C 48 % 86 % 0 % 1023,2 hPa 0,0 l/m 0,2 km/h (0 Bft) 0 min 2,9 km/h (1 Bft)
22.01.2010 08:48 12,6 C 2,8 C 0,0 UV-I 0,0 C 48 % 86 % 0 % 1023,2 hPa 0,0 l/m 0,5 km/h (0 Bft) 0 min 4,3 km/h (1 Bft)
22.01.2010 08:50 12,7 C 2,8 C 0,0 UV-I 0,0 C 48 % 86 % 0 % 1023,2 hPa 0,0 l/m 0,5 km/h (0 Bft) 0 min 4,3 km/h (1 Bft)
22.01.2010 08:52 12,8 C 2,8 C 0,0 UV-I 0,0 C 48 % 86 % 0 % 1023,4 hPa 0,0 l/m 0,7 km/h (0 Bft) 0 min 0,0 km/h (0 Bft)
22.01.2010 08:54 12,6 C 2,8 C 0,0 UV-I 0,0 C 48 % 86 % 0 % 1023,4 hPa 0,0 l/m 0,7 km/h (0 Bft) 0 min 0,0 km/h (0 Bft)
22.01.2010 08:56 12,6 C 2,8 C 0,0 UV-I 0,0 C 48 % 86 % 0 % 1023,4 hPa 0,0 l/m 1,0 km/h (0 Bft) 0 min 4,3 km/h (1 Bft)
22.01.2010 08:58 12,6 C 2,8 C 0,0 UV-I 0,0 C 48 % 86 % 0 % 1023,4 hPa 0,0 l/m 1,0 km/h (0 Bft) 0 min 4,3 km/h (1 Bft)
22.01.2010 09:00 12,8 C 2,8 C 0,0 UV-I 0,0 C 48 % 86 % 0 % 1023,4 hPa 0,0 l/m 1,0 km/h (0 Bft) 0 min 3,4 km/h (1 Bft)
22.01.2010 09:02 12,6 C 2,8 C 0,0 UV-I 0,0 C 48 % 86 % 0 % 1023,4 hPa 0,0 l/m 1,2 km/h (1 Bft) 0 min 4,1 km/h (1 Bft)
22.01.2010 09:04 12,8 C 2,8 C 0,0 UV-I 0,0 C 48 % 86 % 0 % 1023,4 hPa 0,0 l/m 1,2 km/h (1 Bft) 0 min 4,1 km/h (1 Bft)
22.01.2010 09:06 12,6 C 2,9 C 0,0 UV-I 0,0 C 48 % 86 % 0 % 1023,4 hPa 0,0 l/m 1,2 km/h (1 Bft) 0 min 2,9 km/h (1 Bft)
22.01.2010 09:08 12,6 C 2,8 C 0,0 UV-I 0,0 C 48 % 86 % 0 % 1023,4 hPa 0,0 l/m 1,0 km/h (0 Bft) 0 min 2,9 km/h (1 Bft)
22.01.2010 09:10 12,6 C 2,8 C 0,0 UV-I 0,0 C 48 % 86 % 0 % 1023,4 hPa 0,0 l/m 1,0 km/h (0 Bft) 0 min 0,0 km/h (0 Bft)
22.01.2010 09:12 12,8 C 2,8 C 0,0 UV-I 0,0 C 48 % 86 % 0 % 1023,2 hPa 0,0 l/m 0,5 km/h (0 Bft) 0 min 0,0 km/h (0 Bft)
22.01.2010 09:14 12,6 C 2,8 C 0,0 UV-I 0,0 C 48 % 86 % 0 % 1023,2 hPa 0,0 l/m 0,2 km/h (0 Bft) 0 min 0,0 km/h (0 Bft)
22.01.2010 09:16 12,6 C 2,9 C 0,0 UV-I 0,0 C 48 % 86 % 0 % 1023,2 hPa 0,0 l/m 0,2 km/h (0 Bft) 0 min 0,0 km/h (0 Bft)
22.01.2010 09:18 12,8 C 2,8 C 0,0 UV-I 0,0 C 48 % 86 % 0 % 1023,2 hPa 0,0 l/m 0,2 km/h (0 Bft) 0 min 2,9 km/h (1 Bft)
22.01.2010 09:20 12,6 C 2,8 C 0,0 UV-I 0,0 C 48 % 86 % 0 % 1023,2 hPa 0,0 l/m 0,2 km/h (0 Bft) 0 min 2,9 km/h (1 Bft)
22.01.2010 09:22 12,8 C 2,8 C 0,0 UV-I 0,0 C 48 % 86 % 0 % 1023,2 hPa 0,0 l/m 0,5 km/h (0 Bft) 0 min 5,5 km/h (1 Bft)
22.01.2010 09:24 12,6 C 2,8 C 0,0 UV-I 0,0 C 48 % 86 % 0 % 1023,2 hPa 0,0 l/m 0,5 km/h (0 Bft) 0 min 5,5 km/h (1 Bft)
22.01.2010 09:26 12,6 C 2,8 C 0,0 UV-I 0,0 C 48 % 86 % 0 % 1023,2 hPa 0,0 l/m 0,5 km/h (0 Bft) 0 min 0,0 km/h (0 Bft)
22.01.2010 09:28 12,6 C 2,8 C 0,0 UV-I 0,0 C 48 % 86 % 0 % 1023,2 hPa 0,0 l/m 0,5 km/h (0 Bft) 0 min 0,0 km/h (0 Bft)
22.01.2010 09:30 12,6 C 2,8 C 0,0 UV-I 0,0 C 48 % 86 % 0 % 1023,2 hPa 0,0 l/m 0,7 km/h (0 Bft) 0 min 5,3 km/h (1 Bft)
22.01.2010 09:32 12,6 C 2,9 C 0,0 UV-I 0,0 C 48 % 86 % 0 % 1023,6 hPa 0,0 l/m 0,7 km/h (0 Bft) 0 min 5,3 km/h (1 Bft)
22.01.2010 09:34 12,8 C 2,8 C 0,0 UV-I 0,0 C 49 % 86 % 0 % 1023,6 hPa 0,0 l/m 0,7 km/h (0 Bft) 0 min 4,3 km/h (1 Bft)
22.01.2010 09:36 12,6 C 2,9 C 0,0 UV-I 0,0 C 49 % 86 % 0 % 1023,6 hPa 0,0 l/m 0,5 km/h (0 Bft) 0 min 4,3 km/h (1 Bft)
22.01.2010 09:38 12,8 C 2,9 C 0,0 UV-I 0,0 C 48 % 86 % 0 % 1023,6 hPa 0,0 l/m 0,5 km/h (0 Bft) 0 min 0,0 km/h (0 Bft)
22.01.2010 09:40 12,8 C 2,9 C 0,0 UV-I 0,0 C 49 % 86 % 0 % 1023,6 hPa 0,0 l/m 0,5 km/h (0 Bft) 0 min 0,0 km/h (0 Bft)
22.01.2010 09:42 12,8 C 2,9 C 0,0 UV-I 0,0 C 49 % 86 % 0 % 1023,6 hPa 0,0 l/m 0,2 km/h (0 Bft) 0 min 0,0 km/h (0 Bft)
22.01.2010 09:44 12,8 C 2,9 C 0,0 UV-I 0,0 C 49 % 86 % 0 % 1023,6 hPa 0,0 l/m 0,5 km/h (0 Bft) 0 min 3,1 km/h (1 Bft)
22.01.2010 09:48 12,8 C 3,0 C 0,0 UV-I 0,0 C 49 % 86 % 0 % 1023,6 hPa 0,0 l/m 0,5 km/h (0 Bft) 0 min 5,5 km/h (1 Bft)
22.01.2010 09:50 12,8 C 3,1 C 0,0 UV-I 0,0 C 49 % 86 % 0 % 1023,6 hPa 0,0 l/m 0,7 km/h (0 Bft) 0 min 5,5 km/h (1 Bft)
22.01.2010 09:52 12,8 C 3,1 C 0,0 UV-I 0,0 C 49 % 86 % 0 % 1023,9 hPa 0,0 l/m 0,7 km/h (0 Bft) 0 min 0,0 km/h (0 Bft)
22.01.2010 09:54 12,8 C 2,9 C 0,0 UV-I 0,0 C 49 % 86 % 0 % 1023,9 hPa 0,0 l/m 0,7 km/h (0 Bft) 0 min 0,0 km/h (0 Bft)
22.01.2010 09:56 12,8 C 3,1 C 0,1 UV-I 0,0 C 49 % 86 % 0 % 1023,9 hPa 0,0 l/m 0,5 km/h (0 Bft) 0 min 2,6 km/h (1 Bft)
22.01.2010 09:58 12,8 C 3,1 C 0,1 UV-I 0,0 C 49 % 86 % 0 % 1023,9 hPa 0,0 l/m 0,7 km/h (0 Bft) 0 min 3,1 km/h (1 Bft)
22.01.2010 10:00 12,8 C 3,1 C 0,1 UV-I 0,0 C 49 % 86 % 0 % 1023,9 hPa 0,0 l/m 0,7 km/h (0 Bft) 0 min 3,4 km/h (1 Bft)
22.01.2010 10:04 12,8 C 3,1 C 0,1 UV-I 0,0 C 49 % 86 % 0 % 1023,9 hPa 0,0 l/m 1,4 km/h (1 Bft) 0 min 7,0 km/h (2 Bft)
22.01.2010 10:06 12,8 C 3,0 C 0,2 UV-I 0,1 C 49 % 86 % 3 % 1023,9 hPa 0,0 l/m 1,4 km/h (1 Bft) 0 min 3,8 km/h (1 Bft)
22.01.2010 10:08 12,8 C 3,0 C 0,2 UV-I 0,1 C 49 % 86 % 3 % 1023,9 hPa 0,0 l/m 1,4 km/h (1 Bft) 0 min 3,8 km/h (1 Bft)
22.01.2010 10:10 12,8 C 3,0 C 0,2 UV-I 0,1 C 49 % 86 % 3 % 1023,9 hPa 0,0 l/m 1,4 km/h (1 Bft) 0 min 4,6 km/h (1 Bft)
22.01.2010 10:12 12,8 C 3,1 C 0,1 UV-I 0,0 C 49 % 86 % 0 % 1023,9 hPa 0,0 l/m 1,2 km/h (1 Bft) 0 min 7,0 km/h (2 Bft)
22.01.2010 10:14 12,8 C 3,1 C 0,1 UV-I 0,1 C 49 % 86 % 3 % 1023,9 hPa 0,0 l/m 0,7 km/h (0 Bft) 0 min 2,4 km/h (1 Bft)
22.01.2010 10:16 12,8 C 3,1 C 0,2 UV-I 0,1 C 49 % 86 % 3 % 1023,9 hPa 0,0 l/m 1,0 km/h (0 Bft) 0 min 6,7 km/h (2 Bft)
22.01.2010 10:18 12,8 C 3,1 C 0,2 UV-I 0,1 C 49 % 86 % 3 % 1023,9 hPa 0,0 l/m 1,0 km/h (0 Bft) 0 min 6,7 km/h (2 Bft)
22.01.2010 10:20 12,8 C 3,1 C 0,2 UV-I 0,1 C 49 % 86 % 3 % 1023,9 hPa 0,0 l/m 1,2 km/h (1 Bft) 0 min 2,6 km/h (1 Bft)
22.01.2010 10:22 12,8 C 3,2 C 0,2 UV-I 0,0 C 49 % 86 % 0 % 1023,9 hPa 0,0 l/m 1,2 km/h (1 Bft) 0 min 2,9 km/h (1 Bft)
22.01.2010 10:24 12,8 C 3,2 C 0,2 UV-I 0,0 C 49 % 86 % 0 % 1023,9 hPa 0,0 l/m 1,7 km/h (1 Bft) 0 min 4,3 km/h (1 Bft)
22.01.2010 10:26 12,8 C 3,2 C 0,1 UV-I 0,1 C 49 % 86 % 3 % 1023,9 hPa 0,0 l/m 1,9 km/h (1 Bft) 0 min 4,3 km/h (1 Bft)
22.01.2010 10:28 12,8 C 3,2 C 0,1 UV-I 0,1 C 49 % 86 % 3 % 1023,9 hPa 0,0 l/m 1,7 km/h (1 Bft) 0 min 4,1 km/h (1 Bft)
22.01.2010 10:30 12,8 C 3,2 C 0,1 UV-I 0,1 C 49 % 86 % 3 % 1023,9 hPa 0,0 l/m 1,7 km/h (1 Bft) 0 min 5,8 km/h (2 Bft)
22.01.2010 10:32 12,8 C 3,3 C 0,1 UV-I 0,1 C 49 % 86 % 3 % 1024,1 hPa 0,0 l/m 1,9 km/h (1 Bft) 0 min 5,8 km/h (2 Bft)
22.01.2010 10:34 12,8 C 3,3 C 0,1 UV-I 0,1 C 49 % 86 % 3 % 1024,1 hPa 0,0 l/m 2,2 km/h (1 Bft) 0 min 4,3 km/h (1 Bft)
22.01.2010 10:36 12,8 C 3,2 C 0,2 UV-I 0,3 C 49 % 86 % 9 % 1024,1 hPa 0,0 l/m 2,2 km/h (1 Bft) 0 min 5,5 km/h (1 Bft)
22.01.2010 10:38 12,8 C 3,2 C 0,2 UV-I 0,4 C 49 % 86 % 11 % 1024,1 hPa 0,0 l/m 2,2 km/h (1 Bft) 0 min 5,5 km/h (1 Bft)
22.01.2010 10:40 12,8 C 3,3 C 0,2 UV-I 0,3 C 49 % 86 % 9 % 1024,1 hPa 0,0 l/m 2,4 km/h (1 Bft) 0 min 5,3 km/h (1 Bft)
22.01.2010 10:42 12,8 C 3,3 C 0,3 UV-I 0,4 C 49 % 86 % 11 % 1024,1 hPa 0,0 l/m 2,4 km/h (1 Bft) 0 min 9,1 km/h (2 Bft)
22.01.2010 10:44 12,8 C 3,3 C 0,3 UV-I 0,5 C 49 % 86 % 14 % 1024,1 hPa 0,0 l/m 2,4 km/h (1 Bft) 0 min 7,2 km/h (2 Bft)
22.01.2010 10:46 12,8 C 3,4 C 0,4 UV-I 0,5 C 49 % 86 % 14 % 1024,1 hPa 0,0 l/m 2,4 km/h (1 Bft) 0 min 6,5 km/h (2 Bft)
22.01.2010 10:48 12,9 C 3,5 C 0,4 UV-I 0,5 C 49 % 86 % 14 % 1024,1 hPa 0,0 l/m 2,2 km/h (1 Bft) 0 min 6,5 km/h (2 Bft)
22.01.2010 10:50 12,8 C 3,4 C 0,4 UV-I 0,8 C 49 % 86 % 23 % 1024,1 hPa 0,0 l/m 2,4 km/h (1 Bft) 0 min 2,9 km/h (1 Bft)
22.01.2010 10:52 12,9 C 3,5 C 0,8 UV-I 0,9 C 49 % 86 % 26 % 1024,1 hPa 0,0 l/m 2,4 km/h (1 Bft) 0 min 6,5 km/h (2 Bft)
22.01.2010 10:54 12,9 C 3,5 C 0,8 UV-I 1,1 C 49 % 85 % 31 % 1024,1 hPa 0,0 l/m 2,2 km/h (1 Bft) 0 min 6,5 km/h (2 Bft)
22.01.2010 10:56 12,9 C 3,5 C 0,8 UV-I 1,3 C 49 % 85 % 37 % 1024,1 hPa 0,0 l/m 1,9 km/h (1 Bft) 0 min 2,6 km/h (1 Bft)
22.01.2010 11:00 12,8 C 3,6 C 0,8 UV-I 2,1 C 49 % 85 % 60 % 1024,1 hPa 0,0 l/m 2,2 km/h (1 Bft) 0 min 6,7 km/h (2 Bft)
22.01.2010 11:02 12,8 C 3,6 C 0,7 UV-I 2,6 C 49 % 85 % 74 % 1024,1 hPa 0,0 l/m 2,6 km/h (1 Bft) 2 min 6,5 km/h (2 Bft)
22.01.2010 11:04 12,8 C 3,7 C 0,7 UV-I 2,9 C 49 % 85 % 83 % 1024,1 hPa 0,0 l/m 2,4 km/h (1 Bft) 2 min 6,5 km/h (2 Bft)
22.01.2010 11:06 12,8 C 3,7 C 1,0 UV-I 3,4 C 49 % 85 % 97 % 1024,1 hPa 0,0 l/m 2,6 km/h (1 Bft) 2 min 5,1 km/h (1 Bft)
22.01.2010 11:08 12,8 C 3,8 C 1,0 UV-I 3,9 C 49 % 85 % 100 % 1024,1 hPa 0,0 l/m 2,9 km/h (1 Bft) 2 min 5,5 km/h (1 Bft)
22.01.2010 11:10 12,8 C 3,9 C 1,0 UV-I 4,2 C 49 % 85 % 100 % 1024,1 hPa 0,0 l/m 3,4 km/h (1 Bft) 2 min 6,0 km/h (2 Bft)
22.01.2010 11:12 12,8 C 3,9 C 1,1 UV-I 4,4 C 49 % 85 % 100 % 1024,2 hPa 0,0 l/m 3,6 km/h (1 Bft) 2 min 6,0 km/h (2 Bft)
22.01.2010 11:14 12,8 C 4,0 C 1,1 UV-I 4,8 C 49 % 85 % 100 % 1024,2 hPa 0,0 l/m 3,1 km/h (1 Bft) 2 min 5,8 km/h (2 Bft)
22.01.2010 11:16 12,8 C 4,0 C 1,1 UV-I 5,3 C 49 % 85 % 100 % 1024,2 hPa 0,0 l/m 3,4 km/h (1 Bft) 2 min 4,6 km/h (1 Bft)
22.01.2010 11:18 12,8 C 4,0 C 1,1 UV-I 6,1 C 49 % 85 % 100 % 1024,2 hPa 0,0 l/m 3,4 km/h (1 Bft) 2 min 6,5 km/h (2 Bft)
22.01.2010 11:20 12,8 C 4,2 C 1,1 UV-I 6,0 C 49 % 85 % 100 % 1024,2 hPa 0,0 l/m 3,4 km/h (1 Bft) 2 min 6,5 km/h (2 Bft)
22.01.2010 11:22 13,0 C 4,2 C 1,0 UV-I 6,0 C 49 % 85 % 100 % 1024,2 hPa 0,0 l/m 2,9 km/h (1 Bft) 2 min 8,2 km/h (2 Bft)
22.01.2010 11:24 12,8 C 4,4 C 1,0 UV-I 5,9 C 49 % 85 % 100 % 1024,2 hPa 0,0 l/m 2,9 km/h (1 Bft) 2 min 8,2 km/h (2 Bft)
22.01.2010 11:26 13,0 C 4,4 C 1,0 UV-I 6,0 C 49 % 84 % 100 % 1024,2 hPa 0,0 l/m 3,4 km/h (1 Bft) 2 min 7,0 km/h (2 Bft)
22.01.2010 11:28 13,0 C 4,5 C 1,0 UV-I 5,9 C 49 % 84 % 100 % 1024,2 hPa 0,0 l/m 3,1 km/h (1 Bft) 2 min 7,9 km/h (2 Bft)
22.01.2010 11:30 13,0 C 4,7 C 1,0 UV-I 5,6 C 49 % 84 % 100 % 1024,2 hPa 0,0 l/m 3,1 km/h (1 Bft) 2 min 7,9 km/h (2 Bft)
22.01.2010 11:32 13,0 C 4,8 C 1,1 UV-I 5,5 C 49 % 84 % 100 % 1024,2 hPa 0,0 l/m 3,4 km/h (1 Bft) 2 min 3,6 km/h (1 Bft)
22.01.2010 11:34 13,0 C 4,9 C 1,1 UV-I 5,4 C 49 % 84 % 100 % 1024,2 hPa 0,0 l/m 3,1 km/h (1 Bft) 2 min 2,4 km/h (1 Bft)
22.01.2010 11:36 13,0 C 4,8 C 1,1 UV-I 5,7 C 49 % 83 % 100 % 1024,2 hPa 0,0 l/m 3,4 km/h (1 Bft) 2 min 2,4 km/h (1 Bft)
22.01.2010 11:38 13,0 C 4,9 C 1,1 UV-I 5,6 C 49 % 83 % 100 % 1024,2 hPa 0,0 l/m 3,4 km/h (1 Bft) 2 min 2,6 km/h (1 Bft)
22.01.2010 11:40 13,0 C 5,1 C 1,1 UV-I 5,5 C 49 % 83 % 100 % 1024,2 hPa 0,0 l/m 2,9 km/h (1 Bft) 2 min 9,4 km/h (2 Bft)
22.01.2010 11:42 12,8 C 5,1 C 1,1 UV-I 5,6 C 49 % 83 % 100 % 1024,2 hPa 0,0 l/m 2,6 km/h (1 Bft) 2 min 11,1 km/h (2 Bft)
22.01.2010 11:44 13,0 C 5,1 C 1,1 UV-I 5,6 C 49 % 82 % 100 % 1024,2 hPa 0,0 l/m 3,1 km/h (1 Bft) 2 min 7,0 km/h (2 Bft)
22.01.2010 11:46 13,0 C 5,1 C 1,2 UV-I 5,4 C 49 % 82 % 100 % 1024,2 hPa 0,0 l/m 4,6 km/h (1 Bft) 2 min 9,6 km/h (2 Bft)
22.01.2010 11:48 13,0 C 5,2 C 1,2 UV-I 4,9 C 49 % 82 % 100 % 1024,2 hPa 0,0 l/m 5,1 km/h (1 Bft) 2 min 9,9 km/h (2 Bft)
22.01.2010 11:50 13,0 C 5,3 C 1,2 UV-I 4,7 C 49 % 82 % 100 % 1024,2 hPa 0,0 l/m 6,3 km/h (2 Bft) 2 min 14,4 km/h (3 Bft)
22.01.2010 11:52 13,0 C 5,3 C 1,2 UV-I 4,0 C 49 % 81 % 100 % 1024,2 hPa 0,0 l/m 7,0 km/h (2 Bft) 2 min 20,7 km/h (4 Bft)
22.01.2010 11:54 13,0 C 5,3 C 1,2 UV-I 3,1 C 49 % 81 % 89 % 1024,2 hPa 0,0 l/m 7,5 km/h (2 Bft) 2 min 8,7 km/h (2 Bft)
22.01.2010 11:56 12,8 C 5,2 C 1,2 UV-I 2,6 C 49 % 81 % 74 % 1024,2 hPa 0,0 l/m 7,2 km/h (2 Bft) 0 min 6,5 km/h (2 Bft)
22.01.2010 11:58 13,0 C 5,2 C 1,2 UV-I 2,1 C 49 % 81 % 60 % 1024,2 hPa 0,0 l/m 7,7 km/h (2 Bft) 0 min 14,2 km/h (3 Bft)
22.01.2010 12:00 12,8 C 5,2 C 1,2 UV-I 1,6 C 49 % 81 % 46 % 1024,2 hPa 0,0 l/m 7,7 km/h (2 Bft) 0 min 16,6 km/h (3 Bft)
22.01.2010 12:02 13,0 C 5,2 C 1,2 UV-I 1,7 C 49 % 81 % 49 % 1024,2 hPa 0,0 l/m 7,2 km/h (2 Bft) 0 min 16,6 km/h (3 Bft)
22.01.2010 12:04 12,8 C 5,1 C 1,2 UV-I 0,7 C 49 % 81 % 20 % 1024,2 hPa 0,0 l/m 7,7 km/h (2 Bft) 0 min 14,2 km/h (3 Bft)
22.01.2010 12:06 13,0 C 5,0 C 1,0 UV-I 0,4 C 49 % 80 % 11 % 1024,2 hPa 0,0 l/m 7,7 km/h (2 Bft) 0 min 9,1 km/h (2 Bft)
22.01.2010 12:08 12,8 C 5,0 C 1,0 UV-I 0,0 C 49 % 81 % 0 % 1024,2 hPa 0,0 l/m 7,9 km/h (2 Bft) 0 min 13,7 km/h (3 Bft)
22.01.2010 12:10 12,8 C 4,9 C 1,0 UV-I 0,0 C 49 % 80 % 0 % 1024,2 hPa 0,0 l/m 7,0 km/h (2 Bft) 0 min 13,7 km/h (3 Bft)
22.01.2010 12:12 13,0 C 4,9 C 1,1 UV-I 0,0 C 49 % 80 % 0 % 1024,1 hPa 0,0 l/m 6,7 km/h (2 Bft) 0 min 12,8 km/h (3 Bft)
22.01.2010 12:14 13,0 C 4,9 C 1,1 UV-I 0,0 C 49 % 80 % 0 % 1024,1 hPa 0,0 l/m 5,8 km/h (2 Bft) 0 min 12,8 km/h (3 Bft)
22.01.2010 12:16 13,0 C 4,9 C 0,8 UV-I 0,0 C 49 % 80 % 0 % 1024,1 hPa 0,0 l/m 5,3 km/h (1 Bft) 0 min 6,7 km/h (2 Bft)
22.01.2010 12:18 13,0 C 4,8 C 0,8 UV-I 0,0 C 49 % 80 % 0 % 1024,1 hPa 0,0 l/m 4,6 km/h (1 Bft) 0 min 4,1 km/h (1 Bft)
22.01.2010 12:20 13,0 C 4,8 C 0,8 UV-I 0,0 C 48 % 80 % 0 % 1024,1 hPa 0,0 l/m 4,8 km/h (1 Bft) 0 min 8,4 km/h (2 Bft)
22.01.2010 12:24 13,0 C 4,8 C 0,6 UV-I 0,0 C 48 % 81 % 0 % 1024,1 hPa 0,0 l/m 5,1 km/h (1 Bft) 0 min 8,4 km/h (2 Bft)
22.01.2010 12:26 13,0 C 4,8 C 0,8 UV-I 0,0 C 48 % 81 % 0 % 1024,1 hPa 0,0 l/m 5,3 km/h (1 Bft) 0 min 7,7 km/h (2 Bft)
22.01.2010 12:28 13,0 C 4,8 C 0,8 UV-I 0,0 C 48 % 81 % 0 % 1024,1 hPa 0,0 l/m 5,5 km/h (1 Bft) 0 min 7,2 km/h (2 Bft)
22.01.2010 12:30 13,0 C 4,9 C 0,8 UV-I 0,0 C 48 % 81 % 0 % 1024,1 hPa 0,0 l/m 5,3 km/h (1 Bft) 0 min 7,2 km/h (2 Bft)
22.01.2010 12:32 13,0 C 4,8 C 0,8 UV-I 0,0 C 48 % 80 % 0 % 1023,7 hPa 0,0 l/m 5,1 km/h (1 Bft) 0 min 8,9 km/h (2 Bft)
22.01.2010 12:34 13,0 C 4,9 C 0,8 UV-I 0,0 C 49 % 81 % 0 % 1023,7 hPa 0,0 l/m 5,3 km/h (1 Bft) 0 min 8,9 km/h (2 Bft)
22.01.2010 12:36 13,0 C 4,8 C 0,6 UV-I 0,0 C 48 % 81 % 0 % 1023,7 hPa 0,0 l/m 5,5 km/h (1 Bft) 0 min 10,3 km/h (2 Bft)
22.01.2010 12:38 13,0 C 4,9 C 0,6 UV-I 0,0 C 48 % 81 % 0 % 1023,7 hPa 0,0 l/m 6,0 km/h (2 Bft) 0 min 10,3 km/h (2 Bft)
22.01.2010 12:40 13,0 C 5,0 C 0,6 UV-I 0,0 C 48 % 81 % 0 % 1023,7 hPa 0,0 l/m 6,3 km/h (2 Bft) 0 min 8,2 km/h (2 Bft)
22.01.2010 12:42 13,0 C 4,9 C 0,5 UV-I 0,0 C 48 % 81 % 0 % 1023,7 hPa 0,0 l/m 6,3 km/h (2 Bft) 0 min 9,1 km/h (2 Bft)
22.01.2010 12:44 13,0 C 4,9 C 0,5 UV-I 0,0 C 48 % 81 % 0 % 1023,7 hPa 0,0 l/m 6,5 km/h (2 Bft) 0 min 14,7 km/h (3 Bft)
22.01.2010 12:46 13,0 C 4,9 C 0,6 UV-I 0,0 C 48 % 81 % 0 % 1023,7 hPa 0,0 l/m 7,2 km/h (2 Bft) 0 min 14,7 km/h (3 Bft)
22.01.2010 12:48 13,0 C 4,9 C 0,6 UV-I 0,0 C 48 % 81 % 0 % 1023,7 hPa 0,0 l/m 6,7 km/h (2 Bft) 0 min 7,7 km/h (2 Bft)
22.01.2010 12:50 13,0 C 5,1 C 0,6 UV-I 0,0 C 48 % 81 % 0 % 1023,7 hPa 0,0 l/m 6,5 km/h (2 Bft) 0 min 6,5 km/h (2 Bft)
22.01.2010 12:52 12,9 C 5,0 C 0,9 UV-I 0,0 C 48 % 81 % 0 % 1023,6 hPa 0,0 l/m 6,5 km/h (2 Bft) 0 min 7,0 km/h (2 Bft)
22.01.2010 12:54 13,1 C 5,1 C 0,9 UV-I 0,0 C 48 % 81 % 0 % 1023,6 hPa 0,0 l/m 5,8 km/h (2 Bft) 0 min 9,1 km/h (2 Bft)
22.01.2010 12:56 13,1 C 5,1 C 0,8 UV-I 0,4 C 48 % 81 % 11 % 1023,6 hPa 0,0 l/m 4,6 km/h (1 Bft) 0 min 9,1 km/h (2 Bft)
22.01.2010 12:58 13,1 C 5,0 C 0,8 UV-I 0,5 C 48 % 81 % 14 % 1023,6 hPa 0,0 l/m 4,6 km/h (1 Bft) 0 min 7,7 km/h (2 Bft)
22.01.2010 13:00 13,1 C 5,0 C 0,8 UV-I 0,4 C 48 % 81 % 11 % 1023,6 hPa 0,0 l/m 4,8 km/h (1 Bft) 0 min 7,7 km/h (2 Bft)
22.01.2010 13:02 13,1 C 5,1 C 1,0 UV-I 0,3 C 48 % 81 % 9 % 1023,6 hPa 0,0 l/m 5,1 km/h (1 Bft) 0 min 8,2 km/h (2 Bft)
22.01.2010 13:04 13,1 C 5,1 C 1,0 UV-I 0,2 C 48 % 81 % 6 % 1023,6 hPa 0,0 l/m 5,5 km/h (1 Bft) 0 min 8,2 km/h (2 Bft)
22.01.2010 13:05 13,1 C 5,1 C 1,0 UV-I 0,2 C 48 % 81 % 6 % 1023,6 hPa 0,0 l/m 5,5 km/h (1 Bft) 0 min 2,6 km/h (1 Bft)
22.01.2010 13:10 13,2 C 5,2 C 1,0 UV-I 1,1 C 48 % 81 % 31 % 1023,6 hPa 0,0 l/m 3,4 km/h (1 Bft) 0 min 6,5 km/h (2 Bft)
22.01.2010 13:14 13,2 C 5,2 C 1,0 UV-I 1,0 C 48 % 81 % 29 % 1023,9 hPa 0,0 l/m 3,1 km/h (1 Bft) 0 min 6,7 km/h (2 Bft)
22.01.2010 13:16 13,2 C 5,3 C 0,8 UV-I 0,7 C 48 % 81 % 20 % 1023,9 hPa 0,0 l/m 3,8 km/h (1 Bft) 0 min 6,7 km/h (2 Bft)
22.01.2010 13:18 13,2 C 5,3 C 0,8 UV-I 0,6 C 48 % 81 % 17 % 1023,9 hPa 0,0 l/m 4,6 km/h (1 Bft) 0 min 7,5 km/h (2 Bft)
22.01.2010 13:20 13,2 C 5,2 C 0,8 UV-I 0,3 C 48 % 81 % 9 % 1023,9 hPa 0,0 l/m 5,5 km/h (1 Bft) 0 min 7,5 km/h (2 Bft)
22.01.2010 13:22 13,2 C 5,3 C 0,5 UV-I 0,3 C 48 % 81 % 9 % 1023,9 hPa 0,0 l/m 5,3 km/h (1 Bft) 0 min 6,7 km/h (2 Bft)
22.01.2010 13:24 13,2 C 5,3 C 0,5 UV-I 0,3 C 48 % 81 % 9 % 1023,9 hPa 0,0 l/m 4,6 km/h (1 Bft) 0 min 3,1 km/h (1 Bft)
22.01.2010 13:26 13,2 C 5,2 C 0,5 UV-I 0,3 C 48 % 81 % 9 % 1023,9 hPa 0,0 l/m 4,6 km/h (1 Bft) 0 min 6,3 km/h (2 Bft)
22.01.2010 13:28 13,1 C 5,2 C 0,5 UV-I 0,3 C 48 % 81 % 9 % 1023,9 hPa 0,0 l/m 4,6 km/h (1 Bft) 0 min 6,7 km/h (2 Bft)
22.01.2010 13:30 13,2 C 5,2 C 0,5 UV-I 0,1 C 48 % 81 % 3 % 1023,9 hPa 0,0 l/m 4,8 km/h (1 Bft) 0 min 7,9 km/h (2 Bft)
22.01.2010 13:32 13,2 C 5,2 C 0,4 UV-I 0,1 C 48 % 81 % 3 % 1023,6 hPa 0,0 l/m 4,3 km/h (1 Bft) 0 min 7,9 km/h (2 Bft)
22.01.2010 13:34 13,2 C 5,2 C 0,4 UV-I 0,1 C 48 % 81 % 3 % 1023,6 hPa 0,0 l/m 4,6 km/h (1 Bft) 0 min 6,3 km/h (2 Bft)
22.01.2010 13:36 13,2 C 5,2 C 0,3 UV-I 0,0 C 48 % 81 % 0 % 1023,6 hPa 0,0 l/m 5,1 km/h (1 Bft) 0 min 9,6 km/h (2 Bft)
22.01.2010 13:38 13,2 C 5,2 C 0,3 UV-I 0,0 C 48 % 81 % 0 % 1023,6 hPa 0,0 l/m 4,3 km/h (1 Bft) 0 min 9,6 km/h (2 Bft)
22.01.2010 13:40 13,2 C 5,2 C 0,3 UV-I 0,0 C 48 % 81 % 0 % 1023,6 hPa 0,0 l/m 3,6 km/h (1 Bft) 0 min 7,2 km/h (2 Bft)
22.01.2010 13:42 13,2 C 5,2 C 0,3 UV-I 0,0 C 48 % 81 % 0 % 1023,6 hPa 0,0 l/m 2,9 km/h (1 Bft) 0 min 7,2 km/h (2 Bft)
22.01.2010 13:44 13,2 C 5,2 C 0,3 UV-I 0,0 C 48 % 81 % 0 % 1023,6 hPa 0,0 l/m 3,6 km/h (1 Bft) 0 min 7,0 km/h (2 Bft)
22.01.2010 13:46 13,2 C 5,2 C 0,3 UV-I 0,0 C 48 % 81 % 0 % 1023,6 hPa 0,0 l/m 3,8 km/h (1 Bft) 0 min 7,5 km/h (2 Bft)
22.01.2010 13:48 13,2 C 5,2 C 0,3 UV-I 0,0 C 48 % 81 % 0 % 1023,6 hPa 0,0 l/m 3,6 km/h (1 Bft) 0 min 7,5 km/h (2 Bft)
22.01.2010 13:50 13,2 C 5,2 C 0,3 UV-I 0,0 C 48 % 81 % 0 % 1023,6 hPa 0,0 l/m 3,6 km/h (1 Bft) 0 min 7,2 km/h (2 Bft)
22.01.2010 13:52 13,2 C 5,2 C 0,2 UV-I 0,0 C 48 % 81 % 0 % 1023,4 hPa 0,0 l/m 3,8 km/h (1 Bft) 0 min 7,2 km/h (2 Bft)
22.01.2010 13:54 13,2 C 5,2 C 0,2 UV-I 0,0 C 48 % 81 % 0 % 1023,4 hPa 0,0 l/m 3,4 km/h (1 Bft) 0 min 6,0 km/h (2 Bft)
22.01.2010 13:56 13,2 C 5,2 C 0,2 UV-I 0,0 C 48 % 81 % 0 % 1023,4 hPa 0,0 l/m 2,4 km/h (1 Bft) 0 min 3,8 km/h (1 Bft)
22.01.2010 13:58 13,2 C 5,2 C 0,2 UV-I 0,0 C 48 % 81 % 0 % 1023,4 hPa 0,0 l/m 2,6 km/h (1 Bft) 0 min 8,7 km/h (2 Bft)
22.01.2010 14:00 13,2 C 5,3 C 0,2 UV-I 0,0 C 48 % 81 % 0 % 1023,4 hPa 0,0 l/m 3,1 km/h (1 Bft) 0 min 8,7 km/h (2 Bft)
22.01.2010 14:02 13,2 C 5,2 C 0,1 UV-I 0,0 C 48 % 81 % 0 % 1023,4 hPa 0,0 l/m 2,9 km/h (1 Bft) 0 min 4,8 km/h (1 Bft)
22.01.2010 14:04 13,2 C 5,2 C 0,1 UV-I 0,0 C 48 % 81 % 0 % 1023,4 hPa 0,0 l/m 2,9 km/h (1 Bft) 0 min 6,3 km/h (2 Bft)
22.01.2010 14:06 13,2 C 5,3 C 0,1 UV-I 0,0 C 48 % 81 % 0 % 1023,4 hPa 0,0 l/m 3,4 km/h (1 Bft) 0 min 4,1 km/h (1 Bft)
22.01.2010 14:08 13,2 C 5,2 C 0,1 UV-I 0,0 C 48 % 81 % 0 % 1023,4 hPa 0,0 l/m 3,1 km/h (1 Bft) 0 min 4,6 km/h (1 Bft)
22.01.2010 14:10 13,2 C 5,2 C 0,1 UV-I 0,0 C 48 % 81 % 0 % 1023,4 hPa 0,0 l/m 2,4 km/h (1 Bft) 0 min 7,5 km/h (2 Bft)
22.01.2010 14:12 13,2 C 5,2 C 0,0 UV-I 0,0 C 48 % 81 % 0 % 1023,2 hPa 0,0 l/m 3,4 km/h (1 Bft) 0 min 7,9 km/h (2 Bft)
22.01.2010 14:14 13,1 C 5,2 C 0,0 UV-I 0,0 C 48 % 81 % 0 % 1023,2 hPa 0,0 l/m 3,8 km/h (1 Bft) 0 min 7,9 km/h (2 Bft)
22.01.2010 14:16 13,2 C 5,2 C 0,1 UV-I 0,0 C 48 % 81 % 0 % 1023,2 hPa 0,0 l/m 3,8 km/h (1 Bft) 0 min 4,6 km/h (1 Bft)
22.01.2010 14:18 13,2 C 5,2 C 0,1 UV-I 0,0 C 48 % 81 % 0 % 1023,2 hPa 0,0 l/m 3,6 km/h (1 Bft) 0 min 4,6 km/h (1 Bft)
22.01.2010 14:20 13,2 C 5,2 C 0,1 UV-I 0,0 C 48 % 81 % 0 % 1023,2 hPa 0,0 l/m 3,8 km/h (1 Bft) 0 min 4,8 km/h (1 Bft)
22.01.2010 14:22 13,2 C 5,3 C 0,2 UV-I 0,0 C 48 % 81 % 0 % 1023,2 hPa 0,0 l/m 2,4 km/h (1 Bft) 0 min 4,8 km/h (1 Bft)
22.01.2010 14:24 13,2 C 5,2 C 0,2 UV-I 0,0 C 48 % 81 % 0 % 1023,2 hPa 0,0 l/m 1,7 km/h (1 Bft) 0 min 3,4 km/h (1 Bft)
22.01.2010 14:26 13,2 C 5,2 C 0,1 UV-I 0,0 C 48 % 81 % 0 % 1023,2 hPa 0,0 l/m 1,4 km/h (1 Bft) 0 min 0,0 km/h (0 Bft)
22.01.2010 14:28 13,1 C 5,3 C 0,1 UV-I 0,0 C 48 % 81 % 0 % 1023,2 hPa 0,0 l/m 1,4 km/h (1 Bft) 0 min 3,4 km/h (1 Bft)
22.01.2010 14:30 13,1 C 5,2 C 0,1 UV-I 0,0 C 48 % 81 % 0 % 1023,2 hPa 0,0 l/m 1,0 km/h (0 Bft) 0 min 3,4 km/h (1 Bft)
22.01.2010 14:32 13,1 C 5,2 C 0,1 UV-I 0,0 C 48 % 81 % 0 % 1023,3 hPa 0,0 l/m 1,0 km/h (0 Bft) 0 min 0,0 km/h (0 Bft)
22.01.2010 14:34 13,1 C 5,2 C 0,1 UV-I 0,0 C 48 % 81 % 0 % 1023,3 hPa 0,0 l/m 1,0 km/h (0 Bft) 0 min 0,0 km/h (0 Bft)
22.01.2010 14:36 13,1 C 5,3 C 0,1 UV-I 0,0 C 48 % 81 % 0 % 1023,3 hPa 0,0 l/m 1,0 km/h (0 Bft) 0 min 0,0 km/h (0 Bft)
22.01.2010 14:38 13,1 C 5,2 C 0,1 UV-I 0,0 C 48 % 81 % 0 % 1023,3 hPa 0,0 l/m 0,7 km/h (0 Bft) 0 min 4,3 km/h (1 Bft)
22.01.2010 14:40 13,1 C 5,2 C 0,1 UV-I 0,0 C 49 % 81 % 0 % 1023,3 hPa 0,0 l/m 0,5 km/h (0 Bft) 0 min 4,3 km/h (1 Bft)
22.01.2010 14:42 13,1 C 5,2 C 0,1 UV-I 0,0 C 48 % 81 % 0 % 1023,3 hPa 0,0 l/m 0,7 km/h (0 Bft) 0 min 0,0 km/h (0 Bft)
22.01.2010 14:44 13,1 C 5,2 C 0,1 UV-I 0,0 C 49 % 81 % 0 % 1023,3 hPa 0,0 l/m 0,5 km/h (0 Bft) 0 min 3,1 km/h (1 Bft)
22.01.2010 14:46 13,1 C 5,2 C 0,0 UV-I 0,0 C 48 % 81 % 0 % 1023,3 hPa 0,0 l/m 0,7 km/h (0 Bft) 0 min 3,1 km/h (1 Bft)
22.01.2010 14:48 13,1 C 5,2 C 0,0 UV-I 0,0 C 49 % 81 % 0 % 1023,3 hPa 0,0 l/m 0,7 km/h (0 Bft) 0 min 2,4 km/h (1 Bft)
22.01.2010 14:50 13,1 C 5,3 C 0,0 UV-I 0,0 C 48 % 81 % 0 % 1023,3 hPa 0,0 l/m 1,0 km/h (0 Bft) 0 min 6,7 km/h (2 Bft)
22.01.2010 14:52 13,1 C 5,2 C 0,0 UV-I 0,0 C 49 % 81 % 0 % 1023,2 hPa 0,0 l/m 1,4 km/h (1 Bft) 0 min 6,7 km/h (2 Bft)
22.01.2010 14:54 13,1 C 5,2 C 0,0 UV-I 0,0 C 49 % 81 % 0 % 1023,2 hPa 0,0 l/m 1,7 km/h (1 Bft) 0 min 4,3 km/h (1 Bft)
22.01.2010 14:56 13,1 C 5,2 C 0,0 UV-I 0,0 C 49 % 81 % 0 % 1023,2 hPa 0,0 l/m 1,7 km/h (1 Bft) 0 min 4,3 km/h (1 Bft)
22.01.2010 14:58 13,1 C 5,2 C 0,0 UV-I 0,0 C 49 % 81 % 0 % 1023,2 hPa 0,0 l/m 2,2 km/h (1 Bft) 0 min 3,1 km/h (1 Bft)
22.01.2010 15:02 13,1 C 5,2 C 0,0 UV-I 0,0 C 48 % 81 % 0 % 1023,2 hPa 0,0 l/m 2,4 km/h (1 Bft) 0 min 9,6 km/h (2 Bft)
22.01.2010 15:04 13,1 C 5,1 C 0,0 UV-I 0,0 C 48 % 81 % 0 % 1023,2 hPa 0,0 l/m 2,9 km/h (1 Bft) 0 min 8,4 km/h (2 Bft)
22.01.2010 15:06 13,1 C 5,2 C 0,0 UV-I 0,0 C 49 % 81 % 0 % 1023,2 hPa 0,0 l/m 3,1 km/h (1 Bft) 0 min 8,4 km/h (2 Bft)
22.01.2010 15:08 13,1 C 5,2 C 0,0 UV-I 0,0 C 48 % 81 % 0 % 1023,2 hPa 0,0 l/m 2,9 km/h (1 Bft) 0 min 6,0 km/h (2 Bft)
22.01.2010 15:10 13,1 C 5,2 C 0,0 UV-I 0,0 C 48 % 81 % 0 % 1023,2 hPa 0,0 l/m 3,6 km/h (1 Bft) 0 min 5,8 km/h (2 Bft)
22.01.2010 15:12 13,1 C 5,2 C 0,0 UV-I 0,0 C 48 % 81 % 0 % 1023,2 hPa 0,0 l/m 3,6 km/h (1 Bft) 0 min 7,5 km/h (2 Bft)
22.01.2010 15:14 13,1 C 5,2 C 0,0 UV-I 0,0 C 48 % 81 % 0 % 1023,2 hPa 0,0 l/m 3,1 km/h (1 Bft) 0 min 7,5 km/h (2 Bft)
22.01.2010 15:16 13,1 C 5,2 C 0,0 UV-I 0,0 C 48 % 81 % 0 % 1023,2 hPa 0,0 l/m 3,6 km/h (1 Bft) 0 min 11,8 km/h (2 Bft)
22.01.2010 15:18 13,1 C 5,2 C 0,0 UV-I 0,0 C 48 % 81 % 0 % 1023,2 hPa 0,0 l/m 4,1 km/h (1 Bft) 0 min 11,8 km/h (2 Bft)
22.01.2010 15:20 13,1 C 5,2 C 0,0 UV-I 0,0 C 48 % 81 % 0 % 1023,2 hPa 0,0 l/m 4,6 km/h (1 Bft) 0 min 6,7 km/h (2 Bft)
22.01.2010 15:22 13,1 C 5,1 C 0,0 UV-I 0,0 C 48 % 81 % 0 % 1023,2 hPa 0,0 l/m 4,8 km/h (1 Bft) 0 min 4,3 km/h (1 Bft)
22.01.2010 15:30 13,1 C 5,1 C 0,0 UV-I 0,0 C 48 % 81 % 0 % 1023,2 hPa 0,0 l/m 3,6 km/h (1 Bft) 0 min 6,7 km/h (2 Bft)
22.01.2010 15:32 13,1 C 5,1 C 0,0 UV-I 0,0 C 48 % 81 % 0 % 1023,2 hPa 0,0 l/m 3,1 km/h (1 Bft) 0 min 5,5 km/h (1 Bft)
22.01.2010 15:34 12,9 C 5,0 C 0,0 UV-I 0,0 C 48 % 81 % 0 % 1023,2 hPa 0,0 l/m 2,9 km/h (1 Bft) 0 min 4,3 km/h (1 Bft)
22.01.2010 15:36 12,9 C 5,1 C 0,0 UV-I 0,0 C 48 % 81 % 0 % 1023,2 hPa 0,0 l/m 2,2 km/h (1 Bft) 0 min 4,3 km/h (1 Bft)
22.01.2010 15:38 12,9 C 5,1 C 0,0 UV-I 0,0 C 48 % 81 % 0 % 1023,2 hPa 0,0 l/m 2,4 km/h (1 Bft) 0 min 4,3 km/h (1 Bft)
22.01.2010 15:40 12,9 C 5,1 C 0,0 UV-I 0,0 C 48 % 81 % 0 % 1023,2 hPa 0,0 l/m 2,4 km/h (1 Bft) 0 min 6,0 km/h (2 Bft)
22.01.2010 15:42 12,9 C 5,1 C 0,0 UV-I 0,0 C 49 % 81 % 0 % 1023,2 hPa 0,0 l/m 1,9 km/h (1 Bft) 0 min 6,0 km/h (2 Bft)
22.01.2010 15:44 12,9 C 5,1 C 0,0 UV-I 0,0 C 49 % 81 % 0 % 1023,2 hPa 0,0 l/m 1,9 km/h (1 Bft) 0 min 6,7 km/h (2 Bft)
22.01.2010 15:46 13,0 C 5,1 C 0,0 UV-I 0,0 C 48 % 81 % 0 % 1023,2 hPa 0,0 l/m 1,7 km/h (1 Bft) 0 min 6,7 km/h (2 Bft)
22.01.2010 15:48 12,9 C 5,0 C 0,0 UV-I 0,0 C 48 % 81 % 0 % 1023,2 hPa 0,0 l/m 1,4 km/h (1 Bft) 0 min 3,8 km/h (1 Bft)
22.01.2010 15:50 13,0 C 5,1 C 0,0 UV-I 0,0 C 49 % 81 % 0 % 1023,2 hPa 0,0 l/m 1,7 km/h (1 Bft) 0 min 3,8 km/h (1 Bft)
22.01.2010 15:52 13,0 C 5,0 C 0,0 UV-I 0,0 C 48 % 81 % 0 % 1023,7 hPa 0,0 l/m 1,4 km/h (1 Bft) 0 min 0,0 km/h (0 Bft)
22.01.2010 15:54 13,0 C 5,1 C 0,0 UV-I 0,0 C 48 % 81 % 0 % 1023,7 hPa 0,0 l/m 1,4 km/h (1 Bft) 0 min 4,6 km/h (1 Bft)
22.01.2010 15:56 13,0 C 5,1 C 0,0 UV-I 0,0 C 48 % 81 % 0 % 1023,7 hPa 0,0 l/m 1,7 km/h (1 Bft) 0 min 4,6 km/h (1 Bft)
22.01.2010 15:58 13,0 C 5,1 C 0,0 UV-I 0,0 C 48 % 81 % 0 % 1023,7 hPa 0,0 l/m 1,9 km/h (1 Bft) 0 min 2,9 km/h (1 Bft)
22.01.2010 16:02 13,0 C 4,9 C 0,0 UV-I 0,0 C 48 % 81 % 0 % 1023,7 hPa 0,0 l/m 1,7 km/h (1 Bft) 0 min 5,3 km/h (1 Bft)
22.01.2010 16:06 13,0 C 5,0 C 0,0 UV-I 0,0 C 48 % 81 % 0 % 1023,7 hPa 0,0 l/m 1,9 km/h (1 Bft) 0 min 5,3 km/h (1 Bft)
22.01.2010 16:08 13,0 C 4,9 C 0,0 UV-I 0,0 C 48 % 81 % 0 % 1023,7 hPa 0,0 l/m 1,7 km/h (1 Bft) 0 min 4,8 km/h (1 Bft)
22.01.2010 16:10 13,0 C 4,9 C 0,0 UV-I 0,0 C 48 % 81 % 0 % 1023,7 hPa 0,0 l/m 1,7 km/h (1 Bft) 0 min 5,1 km/h (1 Bft)
22.01.2010 16:12 13,0 C 4,8 C 0,0 UV-I 0,0 C 48 % 81 % 0 % 1023,7 hPa 0,0 l/m 1,7 km/h (1 Bft) 0 min 5,1 km/h (1 Bft)
22.01.2010 16:14 13,0 C 4,9 C 0,0 UV-I 0,0 C 48 % 81 % 0 % 1023,7 hPa 0,0 l/m 1,7 km/h (1 Bft) 0 min 6,7 km/h (2 Bft)
22.01.2010 16:16 13,0 C 4,8 C 0,0 UV-I 0,0 C 48 % 81 % 0 % 1023,7 hPa 0,0 l/m 1,9 km/h (1 Bft) 0 min 6,7 km/h (2 Bft)
22.01.2010 16:18 13,0 C 4,8 C 0,0 UV-I 0,0 C 48 % 81 % 0 % 1023,7 hPa 0,0 l/m 1,9 km/h (1 Bft) 0 min 4,6 km/h (1 Bft)
22.01.2010 16:20 12,8 C 4,8 C 0,0 UV-I 0,0 C 48 % 81 % 0 % 1023,7 hPa 0,0 l/m 1,9 km/h (1 Bft) 0 min 4,6 km/h (1 Bft)
22.01.2010 16:22 12,8 C 4,8 C 0,0 UV-I 0,0 C 48 % 81 % 0 % 1023,7 hPa 0,0 l/m 1,9 km/h (1 Bft) 0 min 3,6 km/h (1 Bft)
22.01.2010 16:24 12,8 C 4,8 C 0,0 UV-I 0,0 C 48 % 81 % 0 % 1023,7 hPa 0,0 l/m 1,9 km/h (1 Bft) 0 min 0,0 km/h (0 Bft)
22.01.2010 16:28 12,9 C 4,8 C 0,0 UV-I 0,0 C 48 % 81 % 0 % 1023,7 hPa 0,0 l/m 1,4 km/h (1 Bft) 0 min 4,1 km/h (1 Bft)
22.01.2010 16:30 12,9 C 4,8 C 0,0 UV-I 0,0 C 48 % 81 % 0 % 1023,7 hPa 0,0 l/m 1,4 km/h (1 Bft) 0 min 2,9 km/h (1 Bft)
22.01.2010 16:32 12,8 C 4,8 C 0,0 UV-I 0,0 C 48 % 81 % 0 % 1023,2 hPa 0,0 l/m 1,7 km/h (1 Bft) 0 min 4,1 km/h (1 Bft)
22.01.2010 16:34 12,8 C 4,8 C 0,0 UV-I 0,0 C 48 % 81 % 0 % 1023,2 hPa 0,0 l/m 1,4 km/h (1 Bft) 0 min 4,1 km/h (1 Bft)
22.01.2010 16:36 12,8 C 4,8 C 0,0 UV-I 0,0 C 48 % 81 % 0 % 1023,2 hPa 0,0 l/m 1,4 km/h (1 Bft) 0 min 3,1 km/h (1 Bft)
22.01.2010 16:44 12,8 C 4,8 C 0,0 UV-I 0,0 C 48 % 81 % 0 % 1023,2 hPa 0,0 l/m 1,0 km/h (0 Bft) 0 min 4,1 km/h (1 Bft)
22.01.2010 16:46 12,8 C 4,7 C 0,0 UV-I 0,0 C 48 % 81 % 0 % 1023,2 hPa 0,0 l/m 1,2 km/h (1 Bft) 0 min 3,6 km/h (1 Bft)
22.01.2010 16:48 12,8 C 4,7 C 0,0 UV-I 0,0 C 48 % 81 % 0 % 1023,2 hPa 0,0 l/m 1,2 km/h (1 Bft) 0 min 4,8 km/h (1 Bft)
22.01.2010 16:50 12,8 C 4,7 C 0,0 UV-I 0,0 C 48 % 81 % 0 % 1023,2 hPa 0,0 l/m 1,4 km/h (1 Bft) 0 min 5,5 km/h (1 Bft)
22.01.2010 16:52 12,8 C 4,7 C 0,0 UV-I 0,0 C 48 % 81 % 0 % 1023,3 hPa 0,0 l/m 1,4 km/h (1 Bft) 0 min 5,5 km/h (1 Bft)
22.01.2010 16:54 12,8 C 4,7 C 0,0 UV-I 0,0 C 48 % 81 % 0 % 1023,3 hPa 0,0 l/m 1,4 km/h (1 Bft) 0 min 3,6 km/h (1 Bft)
22.01.2010 16:56 12,8 C 4,6 C 0,0 UV-I 0,0 C 48 % 81 % 0 % 1023,3 hPa 0,0 l/m 1,2 km/h (1 Bft) 0 min 0,0 km/h (0 Bft)
22.01.2010 16:58 12,8 C 4,7 C 0,0 UV-I 0,0 C 48 % 82 % 0 % 1023,3 hPa 0,0 l/m 1,0 km/h (0 Bft) 0 min 0,0 km/h (0 Bft)
22.01.2010 17:02 12,8 C 4,7 C 0,0 UV-I 0,0 C 48 % 82 % 0 % 1023,3 hPa 0,0 l/m 0,5 km/h (0 Bft) 0 min 0,0 km/h (0 Bft)
22.01.2010 17:04 12,8 C 4,7 C 0,0 UV-I 0,0 C 48 % 82 % 0 % 1023,3 hPa 0,0 l/m 0,5 km/h (0 Bft) 0 min 2,4 km/h (1 Bft)
22.01.2010 17:06 12,6 C 4,5 C 0,0 UV-I 0,0 C 48 % 82 % 0 % 1023,3 hPa 0,0 l/m 0,5 km/h (0 Bft) 0 min 3,6 km/h (1 Bft)
22.01.2010 17:08 12,6 C 4,5 C 0,0 UV-I 0,0 C 48 % 82 % 0 % 1023,3 hPa 0,0 l/m 0,5 km/h (0 Bft) 0 min 3,6 km/h (1 Bft)
22.01.2010 17:10 12,6 C 4,5 C 0,0 UV-I 0,0 C 48 % 82 % 0 % 1023,3 hPa 0,0 l/m 0,5 km/h (0 Bft) 0 min 2,4 km/h (1 Bft)
22.01.2010 17:12 12,6 C 4,5 C 0,0 UV-I 0,0 C 48 % 82 % 0 % 1023,3 hPa 0,0 l/m 0,5 km/h (0 Bft) 0 min 0,0 km/h (0 Bft)
22.01.2010 17:14 12,6 C 4,5 C 0,0 UV-I 0,0 C 48 % 82 % 0 % 1023,3 hPa 0,0 l/m 0,5 km/h (0 Bft) 0 min 0,0 km/h (0 Bft)
22.01.2010 17:16 12,6 C 4,5 C 0,0 UV-I 0,0 C 48 % 82 % 0 % 1023,3 hPa 0,0 l/m 0,5 km/h (0 Bft) 0 min 2,4 km/h (1 Bft)
22.01.2010 17:18 12,7 C 4,5 C 0,0 UV-I 0,0 C 48 % 82 % 0 % 1023,3 hPa 0,0 l/m 0,2 km/h (0 Bft) 0 min 0,0 km/h (0 Bft)
22.01.2010 17:20 12,6 C 4,5 C 0,0 UV-I 0,0 C 48 % 82 % 0 % 1023,3 hPa 0,0 l/m 0,2 km/h (0 Bft) 0 min 3,6 km/h (1 Bft)
22.01.2010 17:24 12,7 C 4,4 C 0,0 UV-I 0,0 C 48 % 82 % 0 % 1023,3 hPa 0,0 l/m 1,9 km/h (1 Bft) 0 min 5,5 km/h (1 Bft)
22.01.2010 17:26 12,7 C 4,4 C 0,0 UV-I 0,0 C 48 % 82 % 0 % 1023,3 hPa 0,0 l/m 2,2 km/h (1 Bft) 0 min 5,5 km/h (1 Bft)
22.01.2010 17:28 12,7 C 4,4 C 0,0 UV-I 0,0 C 48 % 82 % 0 % 1023,3 hPa 0,0 l/m 2,4 km/h (1 Bft) 0 min 0,0 km/h (0 Bft)
22.01.2010 17:32 12,7 C 4,4 C 0,0 UV-I 0,0 C 48 % 82 % 0 % 1023,3 hPa 0,0 l/m 1,7 km/h (1 Bft) 0 min 0,0 km/h (0 Bft)
22.01.2010 17:34 12,7 C 4,4 C 0,0 UV-I 0,0 C 48 % 82 % 0 % 1023,3 hPa 0,0 l/m 0,7 km/h (0 Bft) 0 min 2,4 km/h (1 Bft)
22.01.2010 17:36 12,7 C 4,5 C 0,0 UV-I 0,0 C 48 % 82 % 0 % 1023,3 hPa 0,0 l/m 0,5 km/h (0 Bft) 0 min 2,9 km/h (1 Bft)
22.01.2010 17:38 12,7 C 4,5 C 0,0 UV-I 0,0 C 48 % 82 % 0 % 1023,3 hPa 0,0 l/m 0,2 km/h (0 Bft) 0 min 2,9 km/h (1 Bft)
22.01.2010 17:40 12,7 C 4,5 C 0,0 UV-I 0,0 C 48 % 82 % 0 % 1023,3 hPa 0,0 l/m 0,5 km/h (0 Bft) 0 min 0,0 km/h (0 Bft)
22.01.2010 17:42 12,6 C 4,5 C 0,0 UV-I 0,0 C 48 % 82 % 0 % 1023,3 hPa 0,0 l/m 0,7 km/h (0 Bft) 0 min 2,9 km/h (1 Bft)
22.01.2010 17:44 12,7 C 4,4 C 0,0 UV-I 0,0 C 48 % 83 % 0 % 1023,3 hPa 0,0 l/m 0,7 km/h (0 Bft) 0 min 2,9 km/h (1 Bft)
22.01.2010 17:46 12,7 C 4,4 C 0,0 UV-I 0,0 C 48 % 83 % 0 % 1023,3 hPa 0,0 l/m 1,0 km/h (0 Bft) 0 min 2,4 km/h (1 Bft)
22.01.2010 17:48 12,6 C 4,4 C 0,0 UV-I 0,0 C 48 % 83 % 0 % 1023,3 hPa 0,0 l/m 0,7 km/h (0 Bft) 0 min 2,4 km/h (1 Bft)
22.01.2010 17:50 12,6 C 4,4 C 0,0 UV-I 0,0 C 48 % 83 % 0 % 1023,3 hPa 0,0 l/m 0,7 km/h (0 Bft) 0 min 3,6 km/h (1 Bft)
22.01.2010 17:52 12,7 C 4,4 C 0,0 UV-I 0,0 C 48 % 83 % 0 % 1023,3 hPa 0,0 l/m 0,7 km/h (0 Bft) 0 min 0,0 km/h (0 Bft)
22.01.2010 17:54 12,6 C 4,4 C 0,0 UV-I 0,0 C 48 % 83 % 0 % 1023,3 hPa 0,0 l/m 1,0 km/h (0 Bft) 0 min 3,6 km/h (1 Bft)
22.01.2010 17:56 12,6 C 4,4 C 0,0 UV-I 0,0 C 48 % 83 % 0 % 1023,3 hPa 0,0 l/m 1,2 km/h (1 Bft) 0 min 3,6 km/h (1 Bft)
22.01.2010 17:58 12,6 C 4,3 C 0,0 UV-I 0,0 C 48 % 83 % 0 % 1023,3 hPa 0,0 l/m 1,7 km/h (1 Bft) 0 min 6,0 km/h (2 Bft)
22.01.2010 18:00 12,6 C 4,3 C 0,0 UV-I 0,0 C 48 % 83 % 0 % 1023,3 hPa 0,0 l/m 1,7 km/h (1 Bft) 0 min 6,0 km/h (2 Bft)
22.01.2010 18:02 12,6 C 4,3 C 0,0 UV-I 0,0 C 48 % 83 % 0 % 1023,3 hPa 0,0 l/m 1,2 km/h (1 Bft) 0 min 0,0 km/h (0 Bft)
22.01.2010 18:06 12,6 C 4,3 C 0,0 UV-I 0,0 C 48 % 83 % 0 % 1023,3 hPa 0,0 l/m 0,5 km/h (0 Bft) 0 min 4,1 km/h (1 Bft)
22.01.2010 18:08 12,6 C 4,3 C 0,0 UV-I 0,0 C 48 % 83 % 0 % 1023,3 hPa 0,0 l/m 0,7 km/h (0 Bft) 0 min 4,1 km/h (1 Bft)
22.01.2010 18:10 12,6 C 4,3 C 0,0 UV-I 0,0 C 48 % 83 % 0 % 1023,3 hPa 0,0 l/m 0,5 km/h (0 Bft) 0 min 2,4 km/h (1 Bft)
22.01.2010 18:12 12,6 C 4,3 C 0,0 UV-I 0,0 C 48 % 83 % 0 % 1023,3 hPa 0,0 l/m 0,5 km/h (0 Bft) 0 min 2,4 km/h (1 Bft)
22.01.2010 18:14 12,6 C 4,3 C 0,0 UV-I 0,0 C 48 % 83 % 0 % 1023,3 hPa 0,0 l/m 0,7 km/h (0 Bft) 0 min 0,0 km/h (0 Bft)
22.01.2010 18:16 12,6 C 4,3 C 0,0 UV-I 0,0 C 48 % 83 % 0 % 1023,3 hPa 0,0 l/m 0,7 km/h (0 Bft) 0 min 0,0 km/h (0 Bft)
22.01.2010 18:20 12,6 C 4,3 C 0,0 UV-I 0,0 C 48 % 83 % 0 % 1023,3 hPa 0,0 l/m 0,2 km/h (0 Bft) 0 min 3,1 km/h (1 Bft)
22.01.2010 18:22 12,6 C 4,2 C 0,0 UV-I 0,0 C 48 % 83 % 0 % 1023,3 hPa 0,0 l/m 0,2 km/h (0 Bft) 0 min 3,1 km/h (1 Bft)
22.01.2010 18:24 12,6 C 4,3 C 0,0 UV-I 0,0 C 48 % 83 % 0 % 1023,3 hPa 0,0 l/m 0,2 km/h (0 Bft) 0 min 0,0 km/h (0 Bft)
22.01.2010 18:26 12,6 C 4,3 C 0,0 UV-I 0,0 C 48 % 83 % 0 % 1023,3 hPa 0,0 l/m 0,2 km/h (0 Bft) 0 min 0,0 km/h (0 Bft)
22.01.2010 18:28 12,6 C 4,3 C 0,0 UV-I 0,0 C 48 % 83 % 0 % 1023,3 hPa 0,0 l/m 0,5 km/h (0 Bft) 0 min 0,0 km/h (0 Bft)
22.01.2010 18:30 12,6 C 4,2 C 0,0 UV-I 0,0 C 48 % 83 % 0 % 1023,3 hPa 0,0 l/m 0,5 km/h (0 Bft) 0 min 0,0 km/h (0 Bft)
22.01.2010 18:32 12,6 C 4,2 C 0,0 UV-I 0,0 C 48 % 83 % 0 % 1023,4 hPa 0,0 l/m 0,2 km/h (0 Bft) 0 min 0,0 km/h (0 Bft)
22.01.2010 18:34 12,6 C 4,3 C 0,0 UV-I 0,0 C 48 % 83 % 0 % 1023,4 hPa 0,0 l/m 0,2 km/h (0 Bft) 0 min 0,0 km/h (0 Bft)
22.01.2010 18:36 12,6 C 4,3 C 0,0 UV-I 0,0 C 48 % 83 % 0 % 1023,4 hPa 0,0 l/m 0,2 km/h (0 Bft) 0 min 0,0 km/h (0 Bft)
22.01.2010 18:40 12,6 C 4,2 C 0,0 UV-I 0,0 C 48 % 83 % 0 % 1023,4 hPa 0,0 l/m 1,0 km/h (0 Bft) 0 min 3,1 km/h (1 Bft)
22.01.2010 18:42 12,6 C 4,2 C 0,0 UV-I 0,0 C 48 % 83 % 0 % 1023,4 hPa 0,0 l/m 1,4 km/h (1 Bft) 0 min 6,3 km/h (2 Bft)
22.01.2010 18:44 12,6 C 4,2 C 0,0 UV-I 0,0 C 48 % 83 % 0 % 1023,4 hPa 0,0 l/m 1,2 km/h (1 Bft) 0 min 6,3 km/h (2 Bft)
22.01.2010 18:48 12,6 C 4,2 C 0,0 UV-I 0,0 C 48 % 83 % 0 % 1023,4 hPa 0,0 l/m 2,4 km/h (1 Bft) 0 min 5,1 km/h (1 Bft)
22.01.2010 18:50 12,6 C 4,2 C 0,0 UV-I 0,0 C 48 % 83 % 0 % 1023,4 hPa 0,0 l/m 2,6 km/h (1 Bft) 0 min 5,3 km/h (1 Bft)
22.01.2010 18:54 12,6 C 4,2 C 0,0 UV-I 0,0 C 48 % 83 % 0 % 1023,7 hPa 0,0 l/m 2,9 km/h (1 Bft) 0 min 6,3 km/h (2 Bft)
22.01.2010 18:56 12,6 C 4,2 C 0,0 UV-I 0,0 C 48 % 83 % 0 % 1023,7 hPa 0,0 l/m 2,4 km/h (1 Bft) 0 min 6,3 km/h (2 Bft)
22.01.2010 18:58 12,6 C 4,3 C 0,0 UV-I 0,0 C 48 % 83 % 0 % 1023,7 hPa 0,0 l/m 2,2 km/h (1 Bft) 0 min 4,3 km/h (1 Bft)
22.01.2010 19:00 12,4 C 4,2 C 0,0 UV-I 0,0 C 48 % 83 % 0 % 1023,7 hPa 0,0 l/m 1,7 km/h (1 Bft) 0 min 4,3 km/h (1 Bft)
22.01.2010 19:02 12,4 C 4,3 C 0,0 UV-I 0,0 C 48 % 83 % 0 % 1023,7 hPa 0,0 l/m 1,7 km/h (1 Bft) 0 min 4,6 km/h (1 Bft)
22.01.2010 19:06 12,4 C 4,3 C 0,0 UV-I 0,0 C 48 % 83 % 0 % 1023,7 hPa 0,0 l/m 1,4 km/h (1 Bft) 0 min 4,6 km/h (1 Bft)
22.01.2010 19:08 12,4 C 4,3 C 0,0 UV-I 0,0 C 48 % 83 % 0 % 1023,7 hPa 0,0 l/m 1,2 km/h (1 Bft) 0 min 0,0 km/h (0 Bft)
22.01.2010 19:10 12,4 C 4,3 C 0,0 UV-I 0,0 C 48 % 83 % 0 % 1023,7 hPa 0,0 l/m 1,2 km/h (1 Bft) 0 min 2,4 km/h (1 Bft)
22.01.2010 19:12 12,4 C 4,3 C 0,0 UV-I 0,0 C 48 % 83 % 0 % 1023,9 hPa 0,0 l/m 1,7 km/h (1 Bft) 0 min 4,1 km/h (1 Bft)
22.01.2010 19:14 12,4 C 4,3 C 0,0 UV-I 0,0 C 48 % 83 % 0 % 1023,9 hPa 0,0 l/m 1,7 km/h (1 Bft) 0 min 0,0 km/h (0 Bft)
22.01.2010 19:16 12,4 C 4,3 C 0,0 UV-I 0,0 C 48 % 83 % 0 % 1023,9 hPa 0,0 l/m 1,7 km/h (1 Bft) 0 min 2,4 km/h (1 Bft)
22.01.2010 19:18 12,4 C 4,3 C 0,0 UV-I 0,0 C 48 % 83 % 0 % 1023,9 hPa 0,0 l/m 1,9 km/h (1 Bft) 0 min 5,3 km/h (1 Bft)
22.01.2010 19:22 12,4 C 4,2 C 0,0 UV-I 0,0 C 48 % 83 % 0 % 1023,9 hPa 0,0 l/m 2,2 km/h (1 Bft) 0 min 5,3 km/h (1 Bft)
22.01.2010 19:24 12,4 C 4,3 C 0,0 UV-I 0,0 C 48 % 82 % 0 % 1023,9 hPa 0,0 l/m 2,2 km/h (1 Bft) 0 min 6,3 km/h (2 Bft)
22.01.2010 19:28 12,4 C 4,2 C 0,0 UV-I 0,0 C 48 % 83 % 0 % 1023,9 hPa 0,0 l/m 2,4 km/h (1 Bft) 0 min 6,3 km/h (2 Bft)
22.01.2010 19:30 12,4 C 4,2 C 0,0 UV-I 0,0 C 48 % 83 % 0 % 1023,9 hPa 0,0 l/m 2,4 km/h (1 Bft) 0 min 5,5 km/h (1 Bft)
22.01.2010 19:32 12,4 C 4,1 C 0,0 UV-I 0,0 C 48 % 82 % 0 % 1023,9 hPa 0,0 l/m 2,6 km/h (1 Bft) 0 min 2,6 km/h (1 Bft)
22.01.2010 19:34 12,4 C 4,1 C 0,0 UV-I 0,0 C 48 % 83 % 0 % 1023,9 hPa 0,0 l/m 2,6 km/h (1 Bft) 0 min 6,3 km/h (2 Bft)
22.01.2010 19:36 12,4 C 4,1 C 0,0 UV-I 0,0 C 48 % 83 % 0 % 1023,9 hPa 0,0 l/m 2,4 km/h (1 Bft) 0 min 5,3 km/h (1 Bft)
22.01.2010 19:38 12,4 C 4,2 C 0,0 UV-I 0,0 C 48 % 83 % 0 % 1023,9 hPa 0,0 l/m 2,6 km/h (1 Bft) 0 min 5,3 km/h (1 Bft)
22.01.2010 19:40 12,4 C 4,1 C 0,0 UV-I 0,0 C 48 % 83 % 0 % 1023,9 hPa 0,0 l/m 2,4 km/h (1 Bft) 0 min 3,6 km/h (1 Bft)
22.01.2010 19:42 12,5 C 4,1 C 0,0 UV-I 0,0 C 48 % 83 % 0 % 1023,9 hPa 0,0 l/m 2,4 km/h (1 Bft) 0 min 10,3 km/h (2 Bft)
22.01.2010 19:46 12,3 C 4,1 C 0,0 UV-I 0,0 C 48 % 83 % 0 % 1023,9 hPa 0,0 l/m 2,2 km/h (1 Bft) 0 min 10,3 km/h (2 Bft)
22.01.2010 19:48 12,5 C 4,1 C 0,0 UV-I 0,0 C 48 % 83 % 0 % 1023,9 hPa 0,0 l/m 2,2 km/h (1 Bft) 0 min 5,3 km/h (1 Bft)
22.01.2010 19:50 12,5 C 4,1 C 0,0 UV-I 0,0 C 48 % 83 % 0 % 1023,9 hPa 0,0 l/m 1,9 km/h (1 Bft) 0 min 6,3 km/h (2 Bft)
22.01.2010 19:54 12,3 C 4,0 C 0,0 UV-I 0,0 C 48 % 82 % 0 % 1024,1 hPa 0,0 l/m 2,2 km/h (1 Bft) 0 min 6,5 km/h (2 Bft)
22.01.2010 19:58 12,4 C 4,0 C 0,0 UV-I 0,0 C 48 % 82 % 0 % 1024,1 hPa 0,0 l/m 3,6 km/h (1 Bft) 0 min 7,2 km/h (2 Bft)
22.01.2010 20:00 12,5 C 4,0 C 0,0 UV-I 0,0 C 48 % 82 % 0 % 1024,1 hPa 0,0 l/m 3,4 km/h (1 Bft) 0 min 7,2 km/h (2 Bft)
22.01.2010 20:04 12,3 C 4,1 C 0,0 UV-I 0,0 C 48 % 83 % 0 % 1024,1 hPa 0,0 l/m 2,6 km/h (1 Bft) 0 min 4,1 km/h (1 Bft)
22.01.2010 20:06 12,5 C 4,1 C 0,0 UV-I 0,0 C 48 % 83 % 0 % 1024,1 hPa 0,0 l/m 2,9 km/h (1 Bft) 0 min 3,6 km/h (1 Bft)
22.01.2010 20:08 12,5 C 4,0 C 0,0 UV-I 0,0 C 48 % 83 % 0 % 1024,1 hPa 0,0 l/m 2,2 km/h (1 Bft) 0 min 0,0 km/h (0 Bft)
22.01.2010 20:10 12,5 C 4,0 C 0,0 UV-I 0,0 C 48 % 83 % 0 % 1024,1 hPa 0,0 l/m 2,2 km/h (1 Bft) 0 min 7,5 km/h (2 Bft)
22.01.2010 20:14 12,3 C 3,9 C 0,0 UV-I 0,0 C 48 % 83 % 0 % 1024,1 hPa 0,0 l/m 2,9 km/h (1 Bft) 0 min 4,8 km/h (1 Bft)
22.01.2010 20:16 12,3 C 3,9 C 0,0 UV-I 0,0 C 48 % 83 % 0 % 1024,1 hPa 0,0 l/m 2,6 km/h (1 Bft) 0 min 3,8 km/h (1 Bft)
22.01.2010 20:18 12,3 C 3,9 C 0,0 UV-I 0,0 C 48 % 83 % 0 % 1024,1 hPa 0,0 l/m 2,9 km/h (1 Bft) 0 min 4,3 km/h (1 Bft)
22.01.2010 20:20 12,5 C 3,9 C 0,0 UV-I 0,0 C 48 % 83 % 0 % 1024,1 hPa 0,0 l/m 2,9 km/h (1 Bft) 0 min 4,3 km/h (1 Bft)
22.01.2010 20:34 12,3 C 3,7 C 0,0 UV-I 0,0 C 48 % 82 % 0 % 1024,1 hPa 0,0 l/m 3,4 km/h (1 Bft) 0 min 6,7 km/h (2 Bft)
22.01.2010 20:38 12,3 C 3,7 C 0,0 UV-I 0,0 C 48 % 82 % 0 % 1024,1 hPa 0,0 l/m 2,9 km/h (1 Bft) 0 min 5,1 km/h (1 Bft)
22.01.2010 20:42 12,3 C 3,6 C 0,0 UV-I 0,0 C 48 % 82 % 0 % 1024,1 hPa 0,0 l/m 2,9 km/h (1 Bft) 0 min 5,1 km/h (1 Bft)
22.01.2010 20:44 12,3 C 3,7 C 0,0 UV-I 0,0 C 48 % 82 % 0 % 1024,1 hPa 0,0 l/m 2,4 km/h (1 Bft) 0 min 5,1 km/h (1 Bft)
22.01.2010 20:46 12,3 C 3,6 C 0,0 UV-I 0,0 C 48 % 82 % 0 % 1024,1 hPa 0,0 l/m 2,4 km/h (1 Bft) 0 min 2,9 km/h (1 Bft)
22.01.2010 20:48 12,3 C 3,5 C 0,0 UV-I 0,0 C 48 % 82 % 0 % 1024,1 hPa 0,0 l/m 2,4 km/h (1 Bft) 0 min 2,9 km/h (1 Bft)
22.01.2010 20:54 12,4 C 3,5 C 0,0 UV-I 0,0 C 48 % 83 % 0 % 1024,1 hPa 0,0 l/m 1,4 km/h (1 Bft) 0 min 3,6 km/h (1 Bft)
22.01.2010 21:00 12,4 C 3,3 C 0,0 UV-I 0,0 C 47 % 83 % 0 % 1024,1 hPa 0,0 l/m 1,0 km/h (0 Bft) 0 min 3,6 km/h (1 Bft)
22.01.2010 21:02 12,4 C 3,2 C 0,0 UV-I 0,0 C 47 % 83 % 0 % 1024,1 hPa 0,0 l/m 1,2 km/h (1 Bft) 0 min 5,3 km/h (1 Bft)
22.01.2010 21:04 12,4 C 3,3 C 0,0 UV-I 0,0 C 48 % 83 % 0 % 1024,1 hPa 0,0 l/m 1,4 km/h (1 Bft) 0 min 0,0 km/h (0 Bft)
22.01.2010 21:06 12,4 C 3,2 C 0,0 UV-I 0,0 C 47 % 83 % 0 % 1024,1 hPa 0,0 l/m 1,4 km/h (1 Bft) 0 min 0,0 km/h (0 Bft)
22.01.2010 21:08 12,4 C 3,2 C 0,0 UV-I 0,0 C 48 % 83 % 0 % 1024,1 hPa 0,0 l/m 1,4 km/h (1 Bft) 0 min 3,4 km/h (1 Bft)
22.01.2010 21:12 12,4 C 3,1 C 0,0 UV-I 0,0 C 47 % 83 % 0 % 1024,1 hPa 0,0 l/m 1,7 km/h (1 Bft) 0 min 5,1 km/h (1 Bft)
22.01.2010 21:16 12,4 C 3,1 C 0,0 UV-I 0,0 C 47 % 84 % 0 % 1024,1 hPa 0,0 l/m 1,4 km/h (1 Bft) 0 min 7,7 km/h (2 Bft)
22.01.2010 21:22 12,2 C 2,9 C 0,0 UV-I 0,0 C 47 % 84 % 0 % 1024,1 hPa 0,0 l/m 1,7 km/h (1 Bft) 0 min 3,8 km/h (1 Bft)
22.01.2010 21:26 12,2 C 2,8 C 0,0 UV-I 0,0 C 47 % 84 % 0 % 1024,1 hPa 0,0 l/m 1,7 km/h (1 Bft) 0 min 3,4 km/h (1 Bft)
22.01.2010 21:28 12,2 C 2,9 C 0,0 UV-I 0,0 C 47 % 84 % 0 % 1024,1 hPa 0,0 l/m 1,7 km/h (1 Bft) 0 min 4,3 km/h (1 Bft)
22.01.2010 21:30 12,2 C 2,8 C 0,0 UV-I 0,0 C 47 % 84 % 0 % 1024,1 hPa 0,0 l/m 1,7 km/h (1 Bft) 0 min 5,8 km/h (2 Bft)
22.01.2010 21:32 12,2 C 2,8 C 0,0 UV-I 0,0 C 47 % 84 % 0 % 1023,9 hPa 0,0 l/m 1,7 km/h (1 Bft) 0 min 5,8 km/h (2 Bft)
22.01.2010 21:34 12,2 C 2,8 C 0,0 UV-I 0,0 C 47 % 84 % 0 % 1023,9 hPa 0,0 l/m 1,2 km/h (1 Bft) 0 min 3,1 km/h (1 Bft)
22.01.2010 21:38 12,2 C 2,7 C 0,0 UV-I 0,0 C 47 % 84 % 0 % 1023,9 hPa 0,0 l/m 1,0 km/h (0 Bft) 0 min 3,1 km/h (1 Bft)
22.01.2010 21:40 12,2 C 2,7 C 0,0 UV-I 0,0 C 47 % 84 % 0 % 1023,9 hPa 0,0 l/m 1,0 km/h (0 Bft) 0 min 3,1 km/h (1 Bft)
22.01.2010 21:44 12,3 C 2,7 C 0,0 UV-I 0,0 C 47 % 85 % 0 % 1023,9 hPa 0,0 l/m 1,0 km/h (0 Bft) 0 min 3,4 km/h (1 Bft)
22.01.2010 21:48 12,3 C 2,7 C 0,0 UV-I 0,0 C 48 % 85 % 0 % 1023,9 hPa 0,0 l/m 1,2 km/h (1 Bft) 0 min 6,0 km/h (2 Bft)
22.01.2010 21:50 12,3 C 2,7 C 0,0 UV-I 0,0 C 47 % 85 % 0 % 1023,9 hPa 0,0 l/m 1,4 km/h (1 Bft) 0 min 0,0 km/h (0 Bft)
22.01.2010 21:55 12,3 C 2,6 C 0,0 UV-I 0,0 C 48 % 85 % 0 % 1023,9 hPa 0,0 l/m 1,9 km/h (1 Bft) 0 min 3,4 km/h (1 Bft)
22.01.2010 22:00 12,3 C 2,5 C 0,0 UV-I 0,0 C 48 % 86 % 0 % 1023,9 hPa 0,0 l/m 1,4 km/h (1 Bft) 0 min 2,6 km/h (1 Bft)
22.01.2010 22:01 12,3 C 2,5 C 0,0 UV-I 0,0 C 48 % 86 % 0 % 1023,9 hPa 0,0 l/m 1,4 km/h (1 Bft) 0 min 2,6 km/h (1 Bft)
22.01.2010 22:04 12,1 C 2,5 C 0,0 UV-I 0,0 C 48 % 86 % 0 % 1023,9 hPa 0,0 l/m 1,2 km/h (1 Bft) 0 min 3,1 km/h (1 Bft)
22.01.2010 22:06 12,1 C 2,5 C 0,0 UV-I 0,0 C 48 % 86 % 0 % 1023,9 hPa 0,0 l/m 1,0 km/h (0 Bft) 0 min 2,4 km/h (1 Bft)
22.01.2010 22:08 12,1 C 2,5 C 0,0 UV-I 0,0 C 48 % 86 % 0 % 1023,9 hPa 0,0 l/m 1,0 km/h (0 Bft) 0 min 0,0 km/h (0 Bft)
22.01.2010 22:10 12,1 C 2,5 C 0,0 UV-I 0,0 C 48 % 86 % 0 % 1023,9 hPa 0,0 l/m 1,0 km/h (0 Bft) 0 min 0,0 km/h (0 Bft)
22.01.2010 22:12 12,1 C 2,5 C 0,0 UV-I 0,0 C 48 % 86 % 0 % 1023,8 hPa 0,0 l/m 0,7 km/h (0 Bft) 0 min 0,0 km/h (0 Bft)
22.01.2010 22:14 12,1 C 2,5 C 0,0 UV-I 0,0 C 48 % 86 % 0 % 1023,8 hPa 0,0 l/m 1,0 km/h (0 Bft) 0 min 5,1 km/h (1 Bft)
22.01.2010 22:16 12,1 C 2,5 C 0,0 UV-I 0,0 C 48 % 86 % 0 % 1023,8 hPa 0,0 l/m 1,2 km/h (1 Bft) 0 min 5,1 km/h (1 Bft)
22.01.2010 22:18 12,2 C 2,5 C 0,0 UV-I 0,0 C 48 % 87 % 0 % 1023,8 hPa 0,0 l/m 1,2 km/h (1 Bft) 0 min 4,6 km/h (1 Bft)
22.01.2010 22:20 12,1 C 2,5 C 0,0 UV-I 0,0 C 48 % 87 % 0 % 1023,8 hPa 0,0 l/m 1,2 km/h (1 Bft) 0 min 4,6 km/h (1 Bft)
22.01.2010 22:22 12,2 C 2,5 C 0,0 UV-I 0,0 C 48 % 87 % 0 % 1023,8 hPa 0,0 l/m 1,0 km/h (0 Bft) 0 min 2,4 km/h (1 Bft)
22.01.2010 22:24 12,1 C 2,5 C 0,0 UV-I 0,0 C 48 % 87 % 0 % 1023,8 hPa 0,0 l/m 1,0 km/h (0 Bft) 0 min 4,8 km/h (1 Bft)
22.01.2010 22:26 12,2 C 2,5 C 0,0 UV-I 0,0 C 48 % 87 % 0 % 1023,8 hPa 0,0 l/m 0,7 km/h (0 Bft) 0 min 4,8 km/h (1 Bft)
22.01.2010 22:28 12,2 C 2,5 C 0,0 UV-I 0,0 C 48 % 87 % 0 % 1023,8 hPa 0,0 l/m 1,0 km/h (0 Bft) 0 min 4,1 km/h (1 Bft)
22.01.2010 22:30 12,1 C 2,5 C 0,0 UV-I 0,0 C 48 % 87 % 0 % 1023,8 hPa 0,0 l/m 1,0 km/h (0 Bft) 0 min 0,0 km/h (0 Bft)
22.01.2010 22:32 12,1 C 2,5 C 0,0 UV-I 0,0 C 48 % 87 % 0 % 1023,8 hPa 0,0 l/m 1,0 km/h (0 Bft) 0 min 0,0 km/h (0 Bft)
22.01.2010 22:34 12,2 C 2,5 C 0,0 UV-I 0,0 C 48 % 87 % 0 % 1023,8 hPa 0,0 l/m 1,4 km/h (1 Bft) 0 min 5,3 km/h (1 Bft)
22.01.2010 22:36 12,2 C 2,5 C 0,0 UV-I 0,0 C 48 % 87 % 0 % 1023,8 hPa 0,0 l/m 1,7 km/h (1 Bft) 0 min 5,3 km/h (1 Bft)
22.01.2010 22:38 12,2 C 2,6 C 0,0 UV-I 0,0 C 48 % 87 % 0 % 1023,8 hPa 0,0 l/m 1,9 km/h (1 Bft) 0 min 5,3 km/h (1 Bft)
22.01.2010 22:40 12,2 C 2,7 C 0,0 UV-I 0,0 C 48 % 87 % 0 % 1023,8 hPa 0,0 l/m 1,9 km/h (1 Bft) 0 min 5,3 km/h (1 Bft)
22.01.2010 22:42 12,2 C 2,7 C 0,0 UV-I 0,0 C 48 % 87 % 0 % 1023,8 hPa 0,0 l/m 2,2 km/h (1 Bft) 0 min 3,8 km/h (1 Bft)
22.01.2010 22:44 12,1 C 2,7 C 0,0 UV-I 0,0 C 48 % 87 % 0 % 1023,8 hPa 0,0 l/m 1,7 km/h (1 Bft) 0 min 2,6 km/h (1 Bft)
22.01.2010 22:46 12,2 C 2,7 C 0,0 UV-I 0,0 C 48 % 87 % 0 % 1023,8 hPa 0,0 l/m 1,2 km/h (1 Bft) 0 min 0,0 km/h (0 Bft)
22.01.2010 22:48 12,2 C 2,7 C 0,0 UV-I 0,0 C 48 % 87 % 0 % 1023,8 hPa 0,0 l/m 1,0 km/h (0 Bft) 0 min 4,3 km/h (1 Bft)
22.01.2010 22:50 12,2 C 2,7 C 0,0 UV-I 0,0 C 48 % 87 % 0 % 1023,8 hPa 0,0 l/m 0,7 km/h (0 Bft) 0 min 4,3 km/h (1 Bft)
22.01.2010 22:52 12,2 C 2,7 C 0,0 UV-I 0,0 C 48 % 87 % 0 % 1023,9 hPa 0,0 l/m 1,0 km/h (0 Bft) 0 min 4,6 km/h (1 Bft)
22.01.2010 22:54 12,2 C 2,7 C 0,0 UV-I 0,0 C 48 % 87 % 0 % 1023,9 hPa 0,0 l/m 1,0 km/h (0 Bft) 0 min 4,6 km/h (1 Bft)
22.01.2010 22:56 12,2 C 2,7 C 0,0 UV-I 0,0 C 48 % 87 % 0 % 1023,9 hPa 0,0 l/m 1,0 km/h (0 Bft) 0 min 3,6 km/h (1 Bft)
22.01.2010 22:58 12,2 C 2,6 C 0,0 UV-I 0,0 C 48 % 87 % 0 % 1023,9 hPa 0,0 l/m 1,2 km/h (1 Bft) 0 min 5,5 km/h (1 Bft)
22.01.2010 23:00 12,2 C 2,6 C 0,0 UV-I 0,0 C 48 % 87 % 0 % 1023,9 hPa 0,0 l/m 1,2 km/h (1 Bft) 0 min 5,5 km/h (1 Bft)
22.01.2010 23:02 12,2 C 2,6 C 0,0 UV-I 0,0 C 48 % 87 % 0 % 1023,9 hPa 0,0 l/m 1,4 km/h (1 Bft) 0 min 5,3 km/h (1 Bft)
22.01.2010 23:04 12,2 C 2,6 C 0,0 UV-I 0,0 C 48 % 87 % 0 % 1023,9 hPa 0,0 l/m 1,4 km/h (1 Bft) 0 min 5,5 km/h (1 Bft)
22.01.2010 23:06 12,2 C 2,7 C 0,0 UV-I 0,0 C 48 % 87 % 0 % 1023,9 hPa 0,0 l/m 1,4 km/h (1 Bft) 0 min 5,5 km/h (1 Bft)
22.01.2010 23:08 12,2 C 2,7 C 0,0 UV-I 0,0 C 48 % 87 % 0 % 1023,9 hPa 0,0 l/m 1,2 km/h (1 Bft) 0 min 2,6 km/h (1 Bft)
22.01.2010 23:10 12,2 C 2,7 C 0,0 UV-I 0,0 C 48 % 87 % 0 % 1023,9 hPa 0,0 l/m 1,2 km/h (1 Bft) 0 min 3,4 km/h (1 Bft)
22.01.2010 23:12 12,2 C 2,7 C 0,0 UV-I 0,0 C 48 % 87 % 0 % 1023,9 hPa 0,0 l/m 1,2 km/h (1 Bft) 0 min 3,4 km/h (1 Bft)
22.01.2010 23:14 12,2 C 2,7 C 0,0 UV-I 0,0 C 48 % 87 % 0 % 1023,9 hPa 0,0 l/m 1,0 km/h (0 Bft) 0 min 0,0 km/h (0 Bft)
22.01.2010 23:16 12,2 C 2,7 C 0,0 UV-I 0,0 C 48 % 87 % 0 % 1023,9 hPa 0,0 l/m 1,0 km/h (0 Bft) 0 min 4,1 km/h (1 Bft)
22.01.2010 23:18 12,2 C 2,7 C 0,0 UV-I 0,0 C 48 % 87 % 0 % 1023,9 hPa 0,0 l/m 1,0 km/h (0 Bft) 0 min 4,1 km/h (1 Bft)
22.01.2010 23:20 12,2 C 2,7 C 0,0 UV-I 0,0 C 48 % 87 % 0 % 1023,9 hPa 0,0 l/m 1,2 km/h (1 Bft) 0 min 6,3 km/h (2 Bft)
22.01.2010 23:22 12,2 C 2,7 C 0,0 UV-I 0,0 C 48 % 87 % 0 % 1023,9 hPa 0,0 l/m 1,2 km/h (1 Bft) 0 min 6,3 km/h (2 Bft)
22.01.2010 23:24 12,2 C 2,8 C 0,0 UV-I 0,0 C 48 % 87 % 0 % 1023,9 hPa 0,0 l/m 1,4 km/h (1 Bft) 0 min 4,8 km/h (1 Bft)
22.01.2010 23:26 12,2 C 2,8 C 0,0 UV-I 0,0 C 48 % 87 % 0 % 1023,9 hPa 0,0 l/m 2,2 km/h (1 Bft) 0 min 4,8 km/h (1 Bft)
22.01.2010 23:28 12,2 C 2,8 C 0,0 UV-I 0,0 C 48 % 87 % 0 % 1023,9 hPa 0,0 l/m 2,2 km/h (1 Bft) 0 min 6,7 km/h (2 Bft)
22.01.2010 23:30 12,2 C 2,8 C 0,0 UV-I 0,0 C 48 % 87 % 0 % 1023,9 hPa 0,0 l/m 2,4 km/h (1 Bft) 0 min 6,7 km/h (2 Bft)
22.01.2010 23:32 12,2 C 2,8 C 0,0 UV-I 0,0 C 48 % 87 % 0 % 1023,9 hPa 0,0 l/m 2,2 km/h (1 Bft) 0 min 4,1 km/h (1 Bft)
22.01.2010 23:34 12,2 C 2,8 C 0,0 UV-I 0,0 C 48 % 86 % 0 % 1023,9 hPa 0,0 l/m 2,2 km/h (1 Bft) 0 min 4,1 km/h (1 Bft)
22.01.2010 23:36 12,2 C 2,8 C 0,0 UV-I 0,0 C 48 % 86 % 0 % 1023,9 hPa 0,0 l/m 1,7 km/h (1 Bft) 0 min 2,4 km/h (1 Bft)
22.01.2010 23:38 12,2 C 2,8 C 0,0 UV-I 0,0 C 48 % 86 % 0 % 1023,9 hPa 0,0 l/m 1,4 km/h (1 Bft) 0 min 2,4 km/h (1 Bft)
22.01.2010 23:40 12,2 C 2,9 C 0,0 UV-I 0,0 C 48 % 86 % 0 % 1023,9 hPa 0,0 l/m 1,2 km/h (1 Bft) 0 min 2,9 km/h (1 Bft)
22.01.2010 23:42 12,2 C 2,8 C 0,0 UV-I 0,0 C 48 % 86 % 0 % 1023,9 hPa 0,0 l/m 1,9 km/h (1 Bft) 0 min 9,6 km/h (2 Bft)
22.01.2010 23:44 12,2 C 2,9 C 0,0 UV-I 0,0 C 48 % 86 % 0 % 1023,9 hPa 0,0 l/m 1,9 km/h (1 Bft) 0 min 9,6 km/h (2 Bft)
22.01.2010 23:46 12,2 C 2,9 C 0,0 UV-I 0,0 C 48 % 86 % 0 % 1023,9 hPa 0,0 l/m 2,4 km/h (1 Bft) 0 min 4,3 km/h (1 Bft)
22.01.2010 23:48 12,2 C 2,9 C 0,0 UV-I 0,0 C 48 % 86 % 0 % 1023,9 hPa 0,0 l/m 2,6 km/h (1 Bft) 0 min 6,5 km/h (2 Bft)
22.01.2010 23:50 12,2 C 2,9 C 0,0 UV-I 0,0 C 48 % 86 % 0 % 1023,9 hPa 0,0 l/m 2,4 km/h (1 Bft) 0 min 6,5 km/h (2 Bft)
22.01.2010 23:52 12,2 C 2,8 C 0,0 UV-I 0,0 C 48 % 86 % 0 % 1023,9 hPa 0,0 l/m 2,6 km/h (1 Bft) 0 min 4,1 km/h (1 Bft)
22.01.2010 23:54 12,2 C 2,8 C 0,0 UV-I 0,0 C 48 % 86 % 0 % 1023,9 hPa 0,0 l/m 2,4 km/h (1 Bft) 0 min 4,1 km/h (1 Bft)
22.01.2010 23:56 12,2 C 2,8 C 0,0 UV-I 0,0 C 48 % 86 % 0 % 1023,9 hPa 0,0 l/m 2,2 km/h (1 Bft) 0 min 7,5 km/h (2 Bft)
22.01.2010 23:58 12,2 C 2,8 C 0,0 UV-I 0,0 C 48 % 86 % 0 % 1023,9 hPa 0,0 l/m 2,4 km/h (1 Bft) 0 min 9,1 km/h (2 Bft)
_ Min-Zeit 22:04 22:00 00:06 00:06 21:00 12:06 00:06 01:16 - 00:06 - 00:12
Minimum _ 12,1 C 2,5 C 0,0 UV-I 0,0 C 47 % 80 % 0 % 1022,2 hPa - 0,0 km/h (0 Bft) - 0,0 km/h (0 Bft)
_ Max-Zeit 13:10 11:50 11:46 11:18 00:06 02:50 11:08 11:12 00:06 12:08 11:02 11:52
Maximum _ 13,2 C 5,3 C 1,2 UV-I 6,1 C 49 % 87 % 100 % 1024,2 hPa 0,0 l/m 7,9 km/h
NO (2 Bft)
2 min 20,7 km/h
N-NO (4 Bft)
Durchschnitt _ 12,7 C 3,7 C 0,1 UV-I 0,2 C 48 % 84 % 5 % 1023,3 hPa #0,0 l/m 1,5 km/h (1 Bft) #54 min. 3,6 km/h (1 Bft)
© 2012 W. Hausmann